Observation data for Claude 12 Southwest on 11/08/2019      Previous  Date       Current Mesonet Observations  Soil Data  Daily Summary Page  Observations in Plain Language
KCL1 080600Z 17001KT 01/M03 A3044 RMK A01 T00111025  RH  077%=      5-min Rain = 0
KCL1 080601Z 17002KT 01/M02 A3044 RMK A01 T00111024  RH  077%=      5-min Rain = 0
KCL1 080602Z 18002KT 01/M02 A3044 RMK A01 T00111023  RH  078%=      5-min Rain = 0
KCL1 080603Z 18002KT 01/M02 A3044 RMK A01 T00111023  RH  078%=      5-min Rain = 0
KCL1 080604Z 19002KT 01/M02 A3044 RMK A01 T00111023  RH  078%=      5-min Rain = 0
KCL1 080605Z 18001KT 01/M02 A3044 RMK A01 T00111021  RH  079%=      5-min Rain = 0
KCL1 080606Z 20001KT 01/M02 A3044 RMK A01 T00111021  RH  079%=      5-min Rain = 0
KCL1 080607Z 21001KT 01/M02 A3044 RMK A01 T00111024  RH  078%=      5-min Rain = 0
KCL1 080608Z 20002KT 01/M03 A3044 RMK A01 T00111025  RH  077%=      5-min Rain = 0
KCL1 080609Z 20001KT 01/M03 A3044 RMK A01 T00111025  RH  077%=      5-min Rain = 0
KCL1 080610Z 21001KT 01/M02 A3044 RMK A01 T00111023  RH  078%=      5-min Rain = 0
KCL1 080611Z 22002KT 01/M02 A3044 RMK A01 T00111024  RH  077%=      5-min Rain = 0
KCL1 080612Z 21002KT 01/M03 A3044 RMK A01 T00111026  RH  076%=      5-min Rain = 0
KCL1 080613Z 21002KT 01/M03 A3044 RMK A01 T00111026  RH  076%=      5-min Rain = 0
KCL1 080614Z 20002KT 01/M03 A3044 RMK A01 T00111027  RH  076%=      5-min Rain = 0
KCL1 080615Z 21003KT 01/M03 A3044 RMK A01 T00111027  RH  076%=      5-min Rain = 0
KCL1 080616Z 21003KT 01/M03 A3044 RMK A01 T00111028  RH  075%=      5-min Rain = 0
KCL1 080617Z 21002KT 01/M03 A3044 RMK A01 T00111028  RH  075%=      5-min Rain = 0
KCL1 080618Z 21002KT 01/M03 A3044 RMK A01 T00111027  RH  076%=      5-min Rain = 0
KCL1 080619Z 21002KT 01/M03 A3044 RMK A01 T00111027  RH  076%=      5-min Rain = 0
KCL1 080620Z 20001KT 01/M03 A3044 RMK A01 T00111028  RH  075%=      5-min Rain = 0
KCL1 080621Z 23002KT 01/M03 A3044 RMK A01 T00121029  RH  074%=      5-min Rain = 0
KCL1 080622Z 23002KT 01/M03 A3044 RMK A01 T00111029  RH  074%=      5-min Rain = 0
KCL1 080623Z 23002KT 01/M03 A3044 RMK A01 T00111028  RH  075%=      5-min Rain = 0
KCL1 080624Z 23002KT 01/M03 A3044 RMK A01 T00111028  RH  075%=      5-min Rain = 0
KCL1 080625Z 22002KT 01/M03 A3044 RMK A01 T00111028  RH  075%=      5-min Rain = 0
KCL1 080626Z 24002KT 01/M03 A3044 RMK A01 T00111027  RH  075%=      5-min Rain = 0
KCL1 080627Z 24002KT 01/M03 A3044 RMK A01 T00121027  RH  076%=      5-min Rain = 0
KCL1 080628Z 24001KT 01/M03 A3044 RMK A01 T00111027  RH  076%=      5-min Rain = 0
KCL1 080629Z 25002KT 01/M03 A3044 RMK A01 T00111025  RH  077%=      5-min Rain = 0
KCL1 080630Z 24002KT 01/M03 A3044 RMK A01 T00111027  RH  076%=      5-min Rain = 0
KCL1 080631Z 23002KT 01/M03 A3044 RMK A01 T00111028  RH  075%=      5-min Rain = 0
KCL1 080632Z 23001KT 01/M03 A3044 RMK A01 T00111031  RH  073%=      5-min Rain = 0
KCL1 080633Z 21001KT 01/M03 A3044 RMK A01 T00111030  RH  074%=      5-min Rain = 0
KCL1 080634Z 00000KT 01/M03 A3044 RMK A01 T00111029  RH  074%=      5-min Rain = 0
KCL1 080635Z 00000KT 01/M03 A3044 RMK A01 T00111029  RH  075%=      5-min Rain = 0
KCL1 080636Z 00000KT 01/M03 A3044 RMK A01 T00111029  RH  075%=      5-min Rain = 0
KCL1 080637Z 00000KT 01/M03 A3044 RMK A01 T00111029  RH  074%=      5-min Rain = 0
KCL1 080638Z 00000KT 01/M03 A3044 RMK A01 T00121030  RH  074%=      5-min Rain = 0
KCL1 080639Z 00000KT 01/M03 A3044 RMK A01 T00111029  RH  074%=      5-min Rain = 0
KCL1 080640Z 00000KT 01/M03 A3044 RMK A01 T00111028  RH  075%=      5-min Rain = 0
KCL1 080641Z 00000KT 01/M03 A3044 RMK A01 T00111028  RH  075%=      5-min Rain = 0
KCL1 080642Z 00000KT 01/M03 A3044 RMK A01 T00111028  RH  075%=      5-min Rain = 0
KCL1 080643Z 00000KT 01/M03 A3044 RMK A01 T00111029  RH  075%=      5-min Rain = 0
KCL1 080644Z 00000KT 01/M03 A3044 RMK A01 T00111029  RH  074%=      5-min Rain = 0
KCL1 080645Z 00000KT 01/M03 A3044 RMK A01 T00111029  RH  074%=      5-min Rain = 0
KCL1 080646Z 00000KT 01/M03 A3044 RMK A01 T00111029  RH  074%=      5-min Rain = 0
KCL1 080647Z 00000KT 01/M03 A3044 RMK A01 T00111028  RH  075%=      5-min Rain = 0
KCL1 080648Z 00000KT 01/M03 A3044 RMK A01 T00111026  RH  076%=      5-min Rain = 0
KCL1 080649Z 00000KT 01/M03 A3044 RMK A01 T00111028  RH  075%=      5-min Rain = 0
KCL1 080650Z 00000KT 01/M03 A3044 RMK A01 T00111028  RH  075%=      5-min Rain = 0
KCL1 080651Z 00000KT 01/M03 A3044 RMK A01 T00111026  RH  076%=      5-min Rain = 0
KCL1 080652Z 00000KT 01/M03 A3044 RMK A01 T00121026  RH  076%=      5-min Rain = 0
KCL1 080653Z 00000KT 01/M03 A3044 RMK A01 T00111027  RH  076%=      5-min Rain = 0
KCL1 080654Z 00000KT 01/M03 A3044 RMK A01 T00111025  RH  076%=      5-min Rain = 0
KCL1 080655Z 00000KT 01/M03 A3044 RMK A01 T00111026  RH  076%=      5-min Rain = 0
KCL1 080656Z 00000KT 01/M03 A3044 RMK A01 T00111029  RH  075%=      5-min Rain = 0
KCL1 080657Z 00000KT 01/M03 A3044 RMK A01 T00111029  RH  074%=      5-min Rain = 0
KCL1 080658Z 00000KT 01/M03 A3043 RMK A01 T00111029  RH  075%=      5-min Rain = 0
KCL1 080659Z 00000KT 01/M03 A3043 RMK A01 T00111029  RH  075%=      5-min Rain = 0
KCL1 080700Z 00000KT 01/M03 A3043 RMK A01 T00111029  RH  075%=      5-min Rain = 0
KCL1 080701Z 00000KT 01/M03 A3043 RMK A01 T00111028  RH  075%=      5-min Rain = 0
KCL1 080702Z 00000KT 01/M03 A3043 RMK A01 T00111027  RH  076%=      5-min Rain = 0
KCL1 080703Z 00000KT 01/M03 A3043 RMK A01 T00121027  RH  075%=      5-min Rain = 0
KCL1 080704Z 00000KT 01/M03 A3043 RMK A01 T00121026  RH  076%=      5-min Rain = 0
KCL1 080705Z 00000KT 01/M02 A3043 RMK A01 T00121024  RH  077%=      5-min Rain = 0
KCL1 080706Z 24000KT 01/M03 A3043 RMK A01 T00121025  RH  076%=      5-min Rain = 0
KCL1 080707Z 23002KT 01/M03 A3043 RMK A01 T00121026  RH  076%=      5-min Rain = 0
KCL1 080708Z 23002KT 01/M03 A3043 RMK A01 T00121025  RH  076%=      5-min Rain = 0
KCL1 080709Z 23002KT 01/M03 A3043 RMK A01 T00121025  RH  077%=      5-min Rain = 0
KCL1 080710Z 22002KT 01/M02 A3043 RMK A01 T00121024  RH  077%=      5-min Rain = 0
KCL1 080711Z 22002KT 01/M03 A3043 RMK A01 T00121025  RH  076%=      5-min Rain = 0
KCL1 080712Z 22002KT 01/M03 A3043 RMK A01 T00121025  RH  077%=      5-min Rain = 0
KCL1 080713Z 23002KT 01/M02 A3043 RMK A01 T00121024  RH  077%=      5-min Rain = 0
KCL1 080714Z 23002KT 01/M02 A3043 RMK A01 T00121024  RH  077%=      5-min Rain = 0
KCL1 080715Z 23002KT 01/M03 A3043 RMK A01 T00121027  RH  075%=      5-min Rain = 0
KCL1 080716Z 25001KT 01/M03 A3043 RMK A01 T00121026  RH  076%=      5-min Rain = 0
KCL1 080717Z 26002KT 01/M02 A3043 RMK A01 T00121024  RH  077%=      5-min Rain = 0
KCL1 080718Z 24002KT 01/M02 A3043 RMK A01 T00121022  RH  078%=      5-min Rain = 0
KCL1 080719Z 24003KT 01/M02 A3043 RMK A01 T00121021  RH  078%=      5-min Rain = 0
KCL1 080720Z 24003KT 01/M02 A3043 RMK A01 T00121022  RH  078%=      5-min Rain = 0
KCL1 080721Z 24003KT 01/M02 A3043 RMK A01 T00121022  RH  078%=      5-min Rain = 0
KCL1 080722Z 24003KT 01/M02 A3043 RMK A01 T00121023  RH  077%=      5-min Rain = 0
KCL1 080723Z 23002KT 01/M03 A3043 RMK A01 T00121025  RH  076%=      5-min Rain = 0
KCL1 080724Z 24003KT 01/M02 A3043 RMK A01 T00121024  RH  077%=      5-min Rain = 0
KCL1 080725Z 24003KT 01/M02 A3043 RMK A01 T00121023  RH  078%=      5-min Rain = 0
KCL1 080726Z 23003KT 01/M02 A3043 RMK A01 T00121022  RH  078%=      5-min Rain = 0
KCL1 080727Z 23002KT 01/M02 A3043 RMK A01 T00121024  RH  077%=      5-min Rain = 0
KCL1 080728Z 24002KT 01/M02 A3043 RMK A01 T00121023  RH  078%=      5-min Rain = 0
KCL1 080729Z 23002KT 01/M02 A3043 RMK A01 T00121022  RH  078%=      5-min Rain = 0
KCL1 080730Z 21002KT 01/M02 A3043 RMK A01 T00121022  RH  078%=      5-min Rain = 0
KCL1 080731Z 22003KT 01/M02 A3043 RMK A01 T00131020  RH  079%=      5-min Rain = 0
KCL1 080732Z 23003KT 01/M02 A3043 RMK A01 T00131020  RH  079%=      5-min Rain = 0
KCL1 080733Z 22003KT 01/M02 A3043 RMK A01 T00131021  RH  078%=      5-min Rain = 0
KCL1 080734Z 22004KT 01/M02 A3043 RMK A01 T00131021  RH  078%=      5-min Rain = 0
KCL1 080735Z 22003KT 01/M02 A3043 RMK A01 T00131022  RH  078%=      5-min Rain = 0
KCL1 080736Z 21003KT 01/M02 A3043 RMK A01 T00131023  RH  077%=      5-min Rain = 0
KCL1 080737Z 22002KT 01/M02 A3043 RMK A01 T00131023  RH  077%=      5-min Rain = 0
KCL1 080738Z 21003KT 01/M02 A3043 RMK A01 T00131023  RH  077%=      5-min Rain = 0
KCL1 080739Z 21003KT 01/M02 A3043 RMK A01 T00131024  RH  077%=      5-min Rain = 0
KCL1 080740Z 21004KT 01/M02 A3043 RMK A01 T00131023  RH  077%=      5-min Rain = 0
KCL1 080741Z 21003KT 01/M02 A3042 RMK A01 T00131024  RH  076%=      5-min Rain = 0
KCL1 080742Z 21003KT 01/M03 A3042 RMK A01 T00121025  RH  076%=      5-min Rain = 0
KCL1 080743Z 22003KT 01/M02 A3042 RMK A01 T00121024  RH  077%=      5-min Rain = 0
KCL1 080744Z 21003KT 01/M02 A3042 RMK A01 T00121024  RH  077%=      5-min Rain = 0
KCL1 080745Z 21004KT 01/M02 A3042 RMK A01 T00121024  RH  077%=      5-min Rain = 0
KCL1 080746Z 21002KT 01/M03 A3042 RMK A01 T00121025  RH  076%=      5-min Rain = 0
KCL1 080747Z 23002KT 01/M02 A3042 RMK A01 T00121024  RH  077%=      5-min Rain = 0
KCL1 080748Z 22002KT 01/M03 A3042 RMK A01 T00121025  RH  076%=      5-min Rain = 0
KCL1 080749Z 23002KT 01/M03 A3042 RMK A01 T00121026  RH  076%=      5-min Rain = 0
KCL1 080750Z 21002KT 01/M03 A3042 RMK A01 T00121025  RH  076%=      5-min Rain = 0
KCL1 080751Z 23002KT 01/M02 A3042 RMK A01 T00121024  RH  077%=      5-min Rain = 0
KCL1 080752Z 21003KT 01/M02 A3042 RMK A01 T00121023  RH  077%=      5-min Rain = 0
KCL1 080753Z 21004KT 01/M03 A3042 RMK A01 T00121025  RH  076%=      5-min Rain = 0
KCL1 080754Z 20004KT 01/M03 A3042 RMK A01 T00121027  RH  075%=      5-min Rain = 0
KCL1 080755Z 21003KT 01/M03 A3042 RMK A01 T00121027  RH  075%=      5-min Rain = 0
KCL1 080756Z 21003KT 01/M03 A3042 RMK A01 T00121028  RH  075%=      5-min Rain = 0
KCL1 080757Z 21003KT 01/M03 A3042 RMK A01 T00121028  RH  075%=      5-min Rain = 0
KCL1 080758Z 22002KT 01/M03 A3042 RMK A01 T00121027  RH  075%=      5-min Rain = 0
KCL1 080759Z 21004KT 01/M03 A3042 RMK A01 T00121028  RH  075%=      5-min Rain = 0
KCL1 080800Z 20004KT 01/M03 A3042 RMK A01 T00121029  RH  074%=      5-min Rain = 0
KCL1 080801Z 20003KT 01/M03 A3042 RMK A01 T00121031  RH  073%=      5-min Rain = 0
KCL1 080802Z 21002KT 01/M03 A3042 RMK A01 T00121031  RH  073%=      5-min Rain = 0
KCL1 080803Z 21002KT 01/M03 A3042 RMK A01 T00121030  RH  073%=      5-min Rain = 0
KCL1 080804Z 22004KT 01/M03 A3042 RMK A01 T00121029  RH  074%=      5-min Rain = 0
KCL1 080805Z 24003KT 01/M03 A3042 RMK A01 T00121030  RH  074%=      5-min Rain = 0
KCL1 080806Z 25003KT 01/M03 A3042 RMK A01 T00131032  RH  072%=      5-min Rain = 0
KCL1 080807Z 24002KT 01/M03 A3041 RMK A01 T00131033  RH  072%=      5-min Rain = 0
KCL1 080808Z 22003KT 01/M03 A3041 RMK A01 T00131032  RH  072%=      5-min Rain = 0
KCL1 080809Z 20003KT 01/M03 A3041 RMK A01 T00131033  RH  072%=      5-min Rain = 0
KCL1 080810Z 21003KT 01/M03 A3041 RMK A01 T00131033  RH  072%=      5-min Rain = 0
KCL1 080811Z 25003KT 01/M03 A3041 RMK A01 T00131032  RH  072%=      5-min Rain = 0
KCL1 080812Z 23003KT 01/M03 A3041 RMK A01 T00131032  RH  072%=      5-min Rain = 0
KCL1 080813Z 21002KT 01/M03 A3041 RMK A01 T00131032  RH  072%=      5-min Rain = 0
KCL1 080814Z 22002KT 01/M03 A3041 RMK A01 T00131031  RH  073%=      5-min Rain = 0
KCL1 080815Z 23002KT 01/M03 A3041 RMK A01 T00131030  RH  073%=      5-min Rain = 0
KCL1 080816Z 22002KT 01/M03 A3041 RMK A01 T00131031  RH  073%=      5-min Rain = 0
KCL1 080817Z 21003KT 01/M03 A3041 RMK A01 T00131032  RH  072%=      5-min Rain = 0
KCL1 080818Z 22003KT 01/M03 A3041 RMK A01 T00131033  RH  072%=      5-min Rain = 0
KCL1 080819Z 25002KT 01/M03 A3041 RMK A01 T00131032  RH  072%=      5-min Rain = 0
KCL1 080820Z 26004KT 01/M03 A3041 RMK A01 T00131032  RH  072%=      5-min Rain = 0
KCL1 080821Z 25003KT 01/M03 A3041 RMK A01 T00131034  RH  071%=      5-min Rain = 0
KCL1 080822Z 25003KT 01/M04 A3041 RMK A01 T00131035  RH  071%=      5-min Rain = 0
KCL1 080823Z 24003KT 01/M03 A3041 RMK A01 T00131034  RH  071%=      5-min Rain = 0
KCL1 080824Z 22003KT 01/M04 A3041 RMK A01 T00131036  RH  070%=      5-min Rain = 0
KCL1 080825Z 25003KT 01/M04 A3041 RMK A01 T00131038  RH  069%=      5-min Rain = 0
KCL1 080826Z 26004KT 01/M04 A3041 RMK A01 T00131037  RH  070%=      5-min Rain = 0
KCL1 080827Z 25003KT 01/M04 A304 RMK A01 T00131036  RH  070%=      5-min Rain = 0
KCL1 080828Z 22003KT 01/M04 A304 RMK A01 T00131035  RH  070%=      5-min Rain = 0
KCL1 080829Z 24003KT 01/M04 A304 RMK A01 T00131037  RH  070%=      5-min Rain = 0
KCL1 080830Z 21003KT 01/M04 A304 RMK A01 T00131036  RH  070%=      5-min Rain = 0
KCL1 080831Z 25002KT 01/M04 A304 RMK A01 T00131037  RH  070%=      5-min Rain = 0
KCL1 080832Z 23003KT 01/M04 A304 RMK A01 T00131038  RH  069%=      5-min Rain = 0
KCL1 080833Z 24002KT 01/M04 A304 RMK A01 T00131038  RH  069%=      5-min Rain = 0
KCL1 080834Z 24002KT 01/M04 A304 RMK A01 T00131040  RH  068%=      5-min Rain = 0
KCL1 080835Z 25002KT 01/M04 A304 RMK A01 T00131041  RH  067%=      5-min Rain = 0
KCL1 080836Z 25002KT 01/M04 A304 RMK A01 T00131041  RH  067%=      5-min Rain = 0
KCL1 080837Z 26003KT 01/M04 A304 RMK A01 T00131041  RH  067%=      5-min Rain = 0
KCL1 080838Z 26002KT 01/M04 A304 RMK A01 T00131039  RH  068%=      5-min Rain = 0
KCL1 080839Z 27002KT 01/M04 A304 RMK A01 T00131037  RH  069%=      5-min Rain = 0
KCL1 080840Z 27002KT 01/M04 A304 RMK A01 T00131039  RH  068%=      5-min Rain = 0
KCL1 080841Z 26002KT 01/M04 A304 RMK A01 T00131041  RH  067%=      5-min Rain = 0
KCL1 080842Z 26002KT 01/M04 A304 RMK A01 T00131039  RH  069%=      5-min Rain = 0
KCL1 080843Z 26003KT 01/M04 A304 RMK A01 T00131037  RH  070%=      5-min Rain = 0
KCL1 080844Z 26003KT 01/M04 A304 RMK A01 T00131038  RH  069%=      5-min Rain = 0
KCL1 080845Z 26002KT 01/M04 A304 RMK A01 T00131040  RH  068%=      5-min Rain = 0
KCL1 080846Z 27003KT 01/M04 A304 RMK A01 T00131040  RH  068%=      5-min Rain = 0
KCL1 080847Z 26003KT 01/M04 A304 RMK A01 T00131041  RH  067%=      5-min Rain = 0
KCL1 080848Z 27003KT 01/M04 A304 RMK A01 T00131042  RH  067%=      5-min Rain = 0
KCL1 080849Z 25002KT 01/M04 A304 RMK A01 T00131042  RH  067%=      5-min Rain = 0
KCL1 080850Z 26001KT 01/M04 A304 RMK A01 T00131041  RH  067%=      5-min Rain = 0
KCL1 080851Z 26002KT 01/M04 A304 RMK A01 T00131041  RH  067%=      5-min Rain = 0
KCL1 080852Z 27002KT 01/M04 A304 RMK A01 T00121040  RH  068%=      5-min Rain = 0
KCL1 080853Z 27002KT 01/M04 A304 RMK A01 T00131038  RH  069%=      5-min Rain = 0
KCL1 080854Z 26002KT 01/M04 A304 RMK A01 T00131039  RH  069%=      5-min Rain = 0
KCL1 080855Z 25002KT 01/M04 A304 RMK A01 T00131039  RH  068%=      5-min Rain = 0
KCL1 080856Z 25002KT 01/M04 A304 RMK A01 T00131037  RH  069%=      5-min Rain = 0
KCL1 080857Z 25002KT 01/M04 A304 RMK A01 T00131036  RH  070%=      5-min Rain = 0
KCL1 080858Z 23002KT 01/M04 A304 RMK A01 T00131037  RH  069%=      5-min Rain = 0
KCL1 080859Z 22002KT 01/M04 A304 RMK A01 T00131038  RH  069%=      5-min Rain = 0
KCL1 080900Z 25002KT 01/M04 A304 RMK A01 T00131038  RH  068%=      5-min Rain = 0
KCL1 080901Z 24002KT 01/M04 A304 RMK A01 T00131038  RH  069%=      5-min Rain = 0
KCL1 080902Z 23003KT 01/M04 A304 RMK A01 T00131037  RH  069%=      5-min Rain = 0
KCL1 080903Z 24004KT 01/M04 A304 RMK A01 T00131039  RH  068%=      5-min Rain = 0
KCL1 080904Z 23003KT 01/M04 A304 RMK A01 T00131039  RH  068%=      5-min Rain = 0
KCL1 080905Z 23004KT 01/M04 A304 RMK A01 T00131041  RH  067%=      5-min Rain = 0
KCL1 080906Z 23003KT 01/M04 A304 RMK A01 T00131042  RH  067%=      5-min Rain = 0
KCL1 080907Z 24003KT 01/M04 A304 RMK A01 T00131041  RH  067%=      5-min Rain = 0
KCL1 080908Z 23003KT 01/M04 A304 RMK A01 T00131040  RH  068%=      5-min Rain = 0
KCL1 080909Z 23004KT 01/M04 A304 RMK A01 T00131040  RH  068%=      5-min Rain = 0
KCL1 080910Z 22004KT 01/M04 A304 RMK A01 T00131038  RH  069%=      5-min Rain = 0
KCL1 080911Z 23003KT 01/M04 A304 RMK A01 T00131036  RH  070%=      5-min Rain = 0
KCL1 080912Z 24003KT 01/M04 A304 RMK A01 T00131036  RH  070%=      5-min Rain = 0
KCL1 080913Z 24004KT 01/M04 A304 RMK A01 T00131036  RH  070%=      5-min Rain = 0
KCL1 080914Z 23004KT 01/M04 A304 RMK A01 T00131035  RH  070%=      5-min Rain = 0
KCL1 080915Z 24004KT 01/M04 A304 RMK A01 T00131035  RH  070%=      5-min Rain = 0
KCL1 080916Z 24004KT 01/M04 A304 RMK A01 T00131035  RH  071%=      5-min Rain = 0
KCL1 080917Z 24004KT 01/M03 A304 RMK A01 T00131034  RH  071%=      5-min Rain = 0
KCL1 080918Z 22003KT 01/M03 A304 RMK A01 T00131033  RH  071%=      5-min Rain = 0
KCL1 080919Z 23002KT 01/M03 A304 RMK A01 T00131033  RH  071%=      5-min Rain = 0
KCL1 080920Z 22002KT 01/M03 A304 RMK A01 T00131034  RH  071%=      5-min Rain = 0
KCL1 080921Z 23001KT 01/M03 A304 RMK A01 T00131033  RH  071%=      5-min Rain = 0
KCL1 080922Z 24002KT 01/M03 A304 RMK A01 T00131031  RH  072%=      5-min Rain = 0
KCL1 080923Z 21004KT 01/M03 A304 RMK A01 T00131031  RH  073%=      5-min Rain = 0
KCL1 080924Z 21005KT 01/M03 A304 RMK A01 T00131031  RH  072%=      5-min Rain = 0
KCL1 080925Z 20003KT 01/M03 A304 RMK A01 T00131031  RH  072%=      5-min Rain = 0
KCL1 080926Z 22004KT 01/M03 A304 RMK A01 T00131031  RH  073%=      5-min Rain = 0
KCL1 080927Z 22003KT 01/M03 A304 RMK A01 T00131031  RH  072%=      5-min Rain = 0
KCL1 080928Z 22005KT 01/M03 A304 RMK A01 T00131031  RH  072%=      5-min Rain = 0
KCL1 080929Z 21004KT 01/M03 A304 RMK A01 T00131031  RH  072%=      5-min Rain = 0
KCL1 080930Z 25002KT 01/M03 A304 RMK A01 T00131030  RH  073%=      5-min Rain = 0
KCL1 080931Z 22002KT 01/M03 A304 RMK A01 T00131030  RH  073%=      5-min Rain = 0
KCL1 080932Z 24002KT 01/M03 A304 RMK A01 T00131028  RH  074%=      5-min Rain = 0
KCL1 080933Z 23002KT 01/M03 A304 RMK A01 T00131028  RH  074%=      5-min Rain = 0
KCL1 080934Z 22003KT 01/M03 A304 RMK A01 T00131029  RH  073%=      5-min Rain = 0
KCL1 080935Z 22003KT 01/M03 A304 RMK A01 T00131030  RH  073%=      5-min Rain = 0
KCL1 080936Z 22003KT 01/M03 A304 RMK A01 T00131030  RH  073%=      5-min Rain = 0
KCL1 080937Z 23003KT 01/M03 A304 RMK A01 T00131031  RH  072%=      5-min Rain = 0
KCL1 080938Z 24004KT 01/M03 A304 RMK A01 T00131030  RH  073%=      5-min Rain = 0
KCL1 080939Z 23003KT 01/M03 A304 RMK A01 T00131029  RH  073%=      5-min Rain = 0
KCL1 080940Z 24004KT 01/M03 A304 RMK A01 T00131030  RH  073%=      5-min Rain = 0
KCL1 080941Z 22003KT 01/M03 A304 RMK A01 T00131030  RH  073%=      5-min Rain = 0
KCL1 080942Z 23002KT 01/M03 A304 RMK A01 T00131031  RH  073%=      5-min Rain = 0
KCL1 080943Z 24003KT 01/M03 A304 RMK A01 T00131030  RH  073%=      5-min Rain = 0
KCL1 080944Z 21003KT 01/M03 A304 RMK A01 T00131030  RH  073%=      5-min Rain = 0
KCL1 080945Z 19002KT 01/M03 A304 RMK A01 T00131030  RH  073%=      5-min Rain = 0
KCL1 080946Z 21004KT 01/M03 A304 RMK A01 T00131030  RH  073%=      5-min Rain = 0
KCL1 080947Z 22003KT 01/M03 A304 RMK A01 T00131031  RH  073%=      5-min Rain = 0
KCL1 080948Z 21005KT 01/M03 A304 RMK A01 T00131030  RH  073%=      5-min Rain = 0
KCL1 080949Z 21004KT 01/M03 A304 RMK A01 T00131031  RH  072%=      5-min Rain = 0
KCL1 080950Z 22004KT 01/M03 A304 RMK A01 T00131032  RH  072%=      5-min Rain = 0
KCL1 080951Z 21005KT 01/M03 A304 RMK A01 T00131033  RH  072%=      5-min Rain = 0
KCL1 080952Z 22005KT 01/M03 A304 RMK A01 T00131033  RH  071%=      5-min Rain = 0
KCL1 080953Z 21005KT 01/M04 A304 RMK A01 T00131035  RH  070%=      5-min Rain = 0
KCL1 080954Z 22004KT 01/M04 A304 RMK A01 T00131036  RH  070%=      5-min Rain = 0
KCL1 080955Z 22005KT 01/M04 A304 RMK A01 T00131035  RH  070%=      5-min Rain = 0
KCL1 080956Z 23005KT 01/M04 A304 RMK A01 T00131036  RH  070%=      5-min Rain = 0
KCL1 080957Z 21004KT 01/M04 A304 RMK A01 T00131036  RH  069%=      5-min Rain = 0
KCL1 080958Z 20005KT 01/M04 A304 RMK A01 T00131037  RH  069%=      5-min Rain = 0
KCL1 080959Z 21005KT 01/M04 A304 RMK A01 T00131037  RH  070%=      5-min Rain = 0
KCL1 081000Z 20004KT 01/M04 A304 RMK A01 T00131036  RH  070%=      5-min Rain = 0
KCL1 081001Z 21004KT 01/M04 A304 RMK A01 T00131035  RH  070%=      5-min Rain = 0
KCL1 081002Z 21004KT 01/M03 A304 RMK A01 T00131034  RH  071%=      5-min Rain = 0
KCL1 081003Z 22003KT 01/M03 A304 RMK A01 T00131034  RH  071%=      5-min Rain = 0
KCL1 081004Z 20003KT 01/M04 A3039 RMK A01 T00131035  RH  070%=      5-min Rain = 0
KCL1 081005Z 21004KT 01/M03 A3039 RMK A01 T00131034  RH  071%=      5-min Rain = 0
KCL1 081006Z 20004KT 01/M04 A3039 RMK A01 T00131036  RH  070%=      5-min Rain = 0
KCL1 081007Z 20004KT 01/M04 A3039 RMK A01 T00131036  RH  070%=      5-min Rain = 0
KCL1 081008Z 19005KT 01/M04 A3039 RMK A01 T00131037  RH  069%=      5-min Rain = 0
KCL1 081009Z 20004KT 01/M04 A3039 RMK A01 T00131036  RH  070%=      5-min Rain = 0
KCL1 081010Z 21003KT 01/M04 A3039 RMK A01 T00131035  RH  070%=      5-min Rain = 0
KCL1 081011Z 21003KT 01/M04 A3039 RMK A01 T00131035  RH  070%=      5-min Rain = 0
KCL1 081012Z 21004KT 01/M04 A3039 RMK A01 T00131036  RH  070%=      5-min Rain = 0
KCL1 081013Z 21004KT 01/M04 A3039 RMK A01 T00131036  RH  070%=      5-min Rain = 0
KCL1 081014Z 20004KT 01/M04 A3039 RMK A01 T00131036  RH  070%=      5-min Rain = 0
KCL1 081015Z 20003KT 01/M04 A3039 RMK A01 T00131036  RH  070%=      5-min Rain = 0
KCL1 081016Z 21002KT 01/M04 A3039 RMK A01 T00131035  RH  070%=      5-min Rain = 0
KCL1 081017Z 19003KT 01/M03 A3039 RMK A01 T00131034  RH  071%=      5-min Rain = 0
KCL1 081018Z 19004KT 01/M03 A3039 RMK A01 T00131034  RH  070%=      5-min Rain = 0
KCL1 081019Z 20004KT 01/M04 A3039 RMK A01 T00131035  RH  070%=      5-min Rain = 0
KCL1 081020Z 20004KT 01/M04 A3039 RMK A01 T00131035  RH  070%=      5-min Rain = 0
KCL1 081021Z 21004KT 01/M04 A3039 RMK A01 T00131035  RH  070%=      5-min Rain = 0
KCL1 081022Z 21004KT 01/M04 A3039 RMK A01 T00141037  RH  069%=      5-min Rain = 0
KCL1 081023Z 20003KT 01/M04 A3039 RMK A01 T00141037  RH  069%=      5-min Rain = 0
KCL1 081024Z 19003KT 01/M04 A3039 RMK A01 T00141036  RH  069%=      5-min Rain = 0
KCL1 081025Z 20003KT 01/M04 A304 RMK A01 T00141035  RH  070%=      5-min Rain = 0
KCL1 081026Z 19002KT 01/M03 A304 RMK A01 T00131034  RH  071%=      5-min Rain = 0
KCL1 081027Z 20002KT 01/M03 A304 RMK A01 T00141033  RH  071%=      5-min Rain = 0
KCL1 081028Z 18003KT 01/M03 A304 RMK A01 T00141034  RH  071%=      5-min Rain = 0
KCL1 081029Z 17003KT 01/M03 A3039 RMK A01 T00141034  RH  071%=      5-min Rain = 0
KCL1 081030Z 18003KT 01/M03 A3039 RMK A01 T00141034  RH  071%=      5-min Rain = 0
KCL1 081031Z 19001KT 01/M03 A3039 RMK A01 T00141032  RH  071%=      5-min Rain = 0
KCL1 081032Z 21001KT 01/M03 A3039 RMK A01 T00141032  RH  072%=      5-min Rain = 0
KCL1 081033Z 20002KT 01/M03 A304 RMK A01 T00141033  RH  071%=      5-min Rain = 0
KCL1 081034Z 21002KT 01/M04 A304 RMK A01 T00141035  RH  070%=      5-min Rain = 0
KCL1 081035Z 23002KT 01/M04 A3039 RMK A01 T00141036  RH  070%=      5-min Rain = 0
KCL1 081036Z 22002KT 01/M04 A3039 RMK A01 T00131037  RH  069%=      5-min Rain = 0
KCL1 081037Z 22002KT 01/M04 A3039 RMK A01 T00141038  RH  068%=      5-min Rain = 0
KCL1 081038Z 22002KT 01/M04 A3039 RMK A01 T00141037  RH  069%=      5-min Rain = 0
KCL1 081039Z 21002KT 01/M04 A3039 RMK A01 T00141038  RH  068%=      5-min Rain = 0
KCL1 081040Z 21002KT 01/M04 A3039 RMK A01 T00141039  RH  068%=      5-min Rain = 0
KCL1 081041Z 19002KT 01/M04 A3039 RMK A01 T00141040  RH  067%=      5-min Rain = 0
KCL1 081042Z 19003KT 01/M04 A3039 RMK A01 T00141039  RH  068%=      5-min Rain = 0
KCL1 081043Z 19003KT 01/M04 A3039 RMK A01 T00141040  RH  067%=      5-min Rain = 0
KCL1 081044Z 20002KT 01/M04 A3039 RMK A01 T00141040  RH  068%=      5-min Rain = 0
KCL1 081045Z 20002KT 01/M04 A3039 RMK A01 T00141037  RH  069%=      5-min Rain = 0
KCL1 081046Z 20002KT 01/M04 A304 RMK A01 T00141039  RH  068%=      5-min Rain = 0
KCL1 081047Z 20002KT 01/M04 A304 RMK A01 T00141039  RH  068%=      5-min Rain = 0
KCL1 081048Z 19002KT 01/M04 A304 RMK A01 T00141039  RH  068%=      5-min Rain = 0
KCL1 081049Z 21002KT 01/M04 A3039 RMK A01 T00141038  RH  068%=      5-min Rain = 0
KCL1 081050Z 22001KT 01/M04 A3039 RMK A01 T00141038  RH  068%=      5-min Rain = 0
KCL1 081051Z 18002KT 01/M04 A3039 RMK A01 T00141037  RH  068%=      5-min Rain = 0
KCL1 081052Z 19002KT 01/M04 A3039 RMK A01 T00141038  RH  068%=      5-min Rain = 0
KCL1 081053Z 20002KT 01/M04 A3039 RMK A01 T00141039  RH  068%=      5-min Rain = 0
KCL1 081054Z 20002KT 01/M04 A3039 RMK A01 T00141039  RH  068%=      5-min Rain = 0
KCL1 081055Z 20002KT 01/M04 A3039 RMK A01 T00141039  RH  068%=      5-min Rain = 0
KCL1 081056Z 20002KT 01/M04 A3039 RMK A01 T00141038  RH  068%=      5-min Rain = 0
KCL1 081057Z 20002KT 01/M04 A3039 RMK A01 T00141038  RH  068%=      5-min Rain = 0
KCL1 081058Z 19002KT 01/M04 A3039 RMK A01 T00141038  RH  068%=      5-min Rain = 0
KCL1 081059Z 19002KT 01/M04 A3039 RMK A01 T00141037  RH  069%=      5-min Rain = 0
KCL1 081100Z 19003KT 01/M04 A3039 RMK A01 T00141037  RH  069%=      5-min Rain = 0
KCL1 081101Z 22002KT 01/M04 A3039 RMK A01 T00141036  RH  069%=      5-min Rain = 0
KCL1 081102Z 21002KT 01/M04 A3039 RMK A01 T00141038  RH  069%=      5-min Rain = 0
KCL1 081103Z 21003KT 01/M04 A3039 RMK A01 T00141037  RH  069%=      5-min Rain = 0
KCL1 081104Z 21003KT 01/M04 A3039 RMK A01 T00141037  RH  069%=      5-min Rain = 0
KCL1 081105Z 21002KT 01/M04 A3039 RMK A01 T00141037  RH  069%=      5-min Rain = 0
KCL1 081106Z 22002KT 01/M04 A3039 RMK A01 T00141037  RH  069%=      5-min Rain = 0
KCL1 081107Z 22002KT 01/M04 A3039 RMK A01 T00141036  RH  069%=      5-min Rain = 0
KCL1 081108Z 21002KT 01/M04 A3039 RMK A01 T00141036  RH  069%=      5-min Rain = 0
KCL1 081109Z 23002KT 01/M04 A3039 RMK A01 T00141035  RH  070%=      5-min Rain = 0
KCL1 081110Z 22001KT 01/M03 A3039 RMK A01 T00141034  RH  071%=      5-min Rain = 0
KCL1 081111Z 20002KT 01/M03 A3038 RMK A01 T00141034  RH  070%=      5-min Rain = 0
KCL1 081112Z 19002KT 01/M04 A3038 RMK A01 T00141035  RH  070%=      5-min Rain = 0
KCL1 081113Z 18003KT 01/M04 A3038 RMK A01 T00141035  RH  070%=      5-min Rain = 0
KCL1 081114Z 18003KT 01/M03 A3038 RMK A01 T00141034  RH  070%=      5-min Rain = 0
KCL1 081115Z 17003KT 01/M03 A3038 RMK A01 T00141034  RH  070%=      5-min Rain = 0
KCL1 081116Z 17004KT 01/M03 A3038 RMK A01 T00141034  RH  070%=      5-min Rain = 0
KCL1 081117Z 18003KT 01/M03 A3038 RMK A01 T00141034  RH  071%=      5-min Rain = 0
KCL1 081118Z 17003KT 01/M03 A3038 RMK A01 T00141033  RH  071%=      5-min Rain = 0
KCL1 081119Z 17003KT 01/M03 A3038 RMK A01 T00141032  RH  071%=      5-min Rain = 0
KCL1 081120Z 17004KT 01/M03 A3038 RMK A01 T00141033  RH  071%=      5-min Rain = 0
KCL1 081121Z 17004KT 01/M03 A3038 RMK A01 T00141032  RH  072%=      5-min Rain = 0
KCL1 081122Z 17004KT 01/M03 A3038 RMK A01 T00141031  RH  072%=      5-min Rain = 0
KCL1 081123Z 17004KT 01/M03 A3038 RMK A01 T00141031  RH  072%=      5-min Rain = 0
KCL1 081124Z 17004KT 01/M03 A3038 RMK A01 T00131031  RH  072%=      5-min Rain = 0
KCL1 081125Z 18004KT 01/M03 A3038 RMK A01 T00141031  RH  072%=      5-min Rain = 0
KCL1 081126Z 18003KT 01/M03 A3038 RMK A01 T00141031  RH  072%=      5-min Rain = 0
KCL1 081127Z 18003KT 01/M03 A3038 RMK A01 T00141031  RH  072%=      5-min Rain = 0
KCL1 081128Z 18003KT 01/M03 A3038 RMK A01 T00141031  RH  072%=      5-min Rain = 0
KCL1 081129Z 17003KT 01/M03 A3037 RMK A01 T00141031  RH  072%=      5-min Rain = 0
KCL1 081130Z 17004KT 01/M03 A3037 RMK A01 T00131030  RH  073%=      5-min Rain = 0
KCL1 081131Z 16004KT 01/M03 A3037 RMK A01 T00141030  RH  073%=      5-min Rain = 0
KCL1 081132Z 16005KT 01/M03 A3037 RMK A01 T00141029  RH  073%=      5-min Rain = 0
KCL1 081133Z 17004KT 01/M03 A3037 RMK A01 T00141029  RH  073%=      5-min Rain = 0
KCL1 081134Z 17005KT 01/M03 A3037 RMK A01 T00141029  RH  073%=      5-min Rain = 0
KCL1 081135Z 16006KT 01/M03 A3037 RMK A01 T00131030  RH  073%=      5-min Rain = 0
KCL1 081136Z 16005KT 01/M03 A3037 RMK A01 T00131031  RH  072%=      5-min Rain = 0
KCL1 081137Z 16004KT 01/M03 A3037 RMK A01 T00131032  RH  072%=      5-min Rain = 0
KCL1 081138Z 17005KT 01/M03 A3037 RMK A01 T00131031  RH  073%=      5-min Rain = 0
KCL1 081139Z 17005KT 01/M03 A3037 RMK A01 T00131030  RH  073%=      5-min Rain = 0
KCL1 081140Z 17004KT 01/M03 A3037 RMK A01 T00131030  RH  073%=      5-min Rain = 0
KCL1 081141Z 17004KT 01/M03 A3037 RMK A01 T00131031  RH  073%=      5-min Rain = 0
KCL1 081142Z 17004KT 01/M03 A3037 RMK A01 T00131031  RH  073%=      5-min Rain = 0
KCL1 081143Z 17003KT 01/M03 A3037 RMK A01 T00131030  RH  073%=      5-min Rain = 0
KCL1 081144Z 17003KT 01/M03 A3037 RMK A01 T00131030  RH  073%=      5-min Rain = 0
KCL1 081145Z 17003KT 01/M03 A3037 RMK A01 T00131029  RH  074%=      5-min Rain = 0
KCL1 081146Z 17003KT 01/M03 A3037 RMK A01 T00121029  RH  074%=      5-min Rain = 0
KCL1 081147Z 16004KT 01/M03 A3037 RMK A01 T00121029  RH  074%=      5-min Rain = 0
KCL1 081148Z 16003KT 01/M03 A3037 RMK A01 T00121029  RH  074%=      5-min Rain = 0
KCL1 081149Z 16004KT 01/M03 A3037 RMK A01 T00121029  RH  074%=      5-min Rain = 0
KCL1 081150Z 17003KT 01/M03 A3037 RMK A01 T00121029  RH  074%=      5-min Rain = 0
KCL1 081151Z 17003KT 01/M03 A3037 RMK A01 T00121029  RH  074%=      5-min Rain = 0
KCL1 081152Z 19003KT 01/M03 A3037 RMK A01 T00121029  RH  074%=      5-min Rain = 0
KCL1 081153Z 18004KT 01/M03 A3037 RMK A01 T00121029  RH  074%=      5-min Rain = 0
KCL1 081154Z 18003KT 01/M03 A3037 RMK A01 T00121029  RH  074%=      5-min Rain = 0
KCL1 081155Z 19003KT 01/M03 A3038 RMK A01 T00131028  RH  074%=      5-min Rain = 0
KCL1 081156Z 18003KT 01/M03 A3038 RMK A01 T00131029  RH  074%=      5-min Rain = 0
KCL1 081157Z 18003KT 01/M03 A3038 RMK A01 T00131029  RH  074%=      5-min Rain = 0
KCL1 081158Z 19004KT 01/M03 A3038 RMK A01 T00131028  RH  074%=      5-min Rain = 0
KCL1 081159Z 18004KT 01/M03 A3038 RMK A01 T00131029  RH  074%=      5-min Rain = 0
KCL1 081200Z 18004KT 01/M03 A3038 RMK A01 T00131029  RH  073%=      5-min Rain = 0
KCL1 081201Z 17004KT 01/M03 A3037 RMK A01 T00131030  RH  073%=      5-min Rain = 0
KCL1 081202Z 20005KT 01/M03 A3037 RMK A01 T00131028  RH  074%=      5-min Rain = 0
KCL1 081203Z 21004KT 01/M03 A3037 RMK A01 T00131029  RH  074%=      5-min Rain = 0
KCL1 081204Z 19004KT 01/M03 A3038 RMK A01 T00131030  RH  073%=      5-min Rain = 0
KCL1 081205Z 19005KT 01/M03 A3038 RMK A01 T00141029  RH  073%=      5-min Rain = 0
KCL1 081206Z 19007KT 01/M03 A3038 RMK A01 T00141029  RH  073%=      5-min Rain = 0
KCL1 081207Z 19006KT 01/M03 A3038 RMK A01 T00141029  RH  073%=      5-min Rain = 0
KCL1 081208Z 19006KT 01/M03 A3038 RMK A01 T00141030  RH  073%=      5-min Rain = 0
KCL1 081209Z 19005KT 01/M03 A3038 RMK A01 T00141029  RH  073%=      5-min Rain = 0
KCL1 081210Z 20004KT 01/M03 A3038 RMK A01 T00141030  RH  073%=      5-min Rain = 0
KCL1 081211Z 20004KT 01/M03 A3038 RMK A01 T00141029  RH  073%=      5-min Rain = 0
KCL1 081212Z 21003KT 01/M03 A3038 RMK A01 T00141030  RH  073%=      5-min Rain = 0
KCL1 081213Z 21003KT 01/M03 A3038 RMK A01 T00141030  RH  073%=      5-min Rain = 0
KCL1 081214Z 21002KT 01/M03 A3038 RMK A01 T00141030  RH  073%=      5-min Rain = 0
KCL1 081215Z 19002KT 01/M03 A3038 RMK A01 T00141030  RH  073%=      5-min Rain = 0
KCL1 081216Z 17002KT 01/M03 A3038 RMK A01 T00141029  RH  073%=      5-min Rain = 0
KCL1 081217Z 17002KT 01/M03 A3038 RMK A01 T00141030  RH  073%=      5-min Rain = 0
KCL1 081218Z 19002KT 01/M03 A3038 RMK A01 T00141029  RH  073%=      5-min Rain = 0
KCL1 081219Z 22002KT 01/M03 A3038 RMK A01 T00141028  RH  074%=      5-min Rain = 0
KCL1 081220Z 23001KT 01/M03 A3038 RMK A01 T00131029  RH  073%=      5-min Rain = 0
KCL1 081221Z 20002KT 01/M03 A3038 RMK A01 T00141030  RH  073%=      5-min Rain = 0
KCL1 081222Z 20002KT 01/M03 A3038 RMK A01 T00131030  RH  073%=      5-min Rain = 0
KCL1 081223Z 19002KT 01/M03 A3038 RMK A01 T00141030  RH  073%=      5-min Rain = 0
KCL1 081224Z 20001KT 01/M03 A3038 RMK A01 T00141030  RH  073%=      5-min Rain = 0
KCL1 081225Z 18001KT 01/M03 A3038 RMK A01 T00141029  RH  073%=      5-min Rain = 0
KCL1 081226Z 20002KT 01/M03 A3038 RMK A01 T00141029  RH  073%=      5-min Rain = 0
KCL1 081227Z 21002KT 01/M03 A3038 RMK A01 T00141028  RH  074%=      5-min Rain = 0
KCL1 081228Z 20002KT 01/M03 A3038 RMK A01 T00141028  RH  074%=      5-min Rain = 0
KCL1 081229Z 18001KT 01/M03 A3038 RMK A01 T00141028  RH  074%=      5-min Rain = 0
KCL1 081230Z 21002KT 01/M03 A3038 RMK A01 T00141027  RH  074%=      5-min Rain = 0
KCL1 081231Z 21002KT 01/M03 A3038 RMK A01 T00141026  RH  075%=      5-min Rain = 0
KCL1 081232Z 21001KT 01/M03 A3038 RMK A01 T00141026  RH  075%=      5-min Rain = 0
KCL1 081233Z 21002KT 01/M03 A3038 RMK A01 T00141028  RH  074%=      5-min Rain = 0
KCL1 081234Z 20002KT 01/M03 A3038 RMK A01 T00141028  RH  074%=      5-min Rain = 0
KCL1 081235Z 18003KT 01/M03 A3038 RMK A01 T00141028  RH  074%=      5-min Rain = 0
KCL1 081236Z 18003KT 01/M03 A3038 RMK A01 T00141027  RH  074%=      5-min Rain = 0
KCL1 081237Z 18003KT 01/M03 A3038 RMK A01 T00141027  RH  074%=      5-min Rain = 0
KCL1 081238Z 17003KT 01/M03 A3038 RMK A01 T00141027  RH  074%=      5-min Rain = 0
KCL1 081239Z 17003KT 01/M03 A3038 RMK A01 T00141027  RH  075%=      5-min Rain = 0
KCL1 081240Z 17003KT 01/M03 A3038 RMK A01 T00131026  RH  075%=      5-min Rain = 0
KCL1 081241Z 18003KT 01/M03 A3038 RMK A01 T00141026  RH  075%=      5-min Rain = 0
KCL1 081242Z 18003KT 01/M03 A3038 RMK A01 T00141025  RH  075%=      5-min Rain = 0
KCL1 081243Z 19003KT 01/M03 A3038 RMK A01 T00141025  RH  076%=      5-min Rain = 0
KCL1 081244Z 18003KT 01/M03 A3038 RMK A01 T00141025  RH  075%=      5-min Rain = 0
KCL1 081245Z 18004KT 01/M03 A3038 RMK A01 T00141025  RH  075%=      5-min Rain = 0
KCL1 081246Z 18004KT 01/M02 A3037 RMK A01 T00141024  RH  076%=      5-min Rain = 0
KCL1 081247Z 18004KT 01/M02 A3037 RMK A01 T00141024  RH  076%=      5-min Rain = 0
KCL1 081248Z 19003KT 01/M02 A3037 RMK A01 T00141024  RH  076%=      5-min Rain = 0
KCL1 081249Z 19003KT 01/M02 A3038 RMK A01 T00141024  RH  076%=      5-min Rain = 0
KCL1 081250Z 19003KT 01/M02 A3038 RMK A01 T00141024  RH  076%=      5-min Rain = 0
KCL1 081251Z 19003KT 01/M02 A3038 RMK A01 T00141024  RH  076%=      5-min Rain = 0
KCL1 081252Z 20003KT 01/M02 A3038 RMK A01 T00141024  RH  076%=      5-min Rain = 0
KCL1 081253Z 20002KT 01/M02 A3038 RMK A01 T00141024  RH  076%=      5-min Rain = 0
KCL1 081254Z 20003KT 01/M02 A3038 RMK A01 T00141023  RH  076%=      5-min Rain = 0
KCL1 081255Z 19003KT 01/M02 A3038 RMK A01 T00141024  RH  076%=      5-min Rain = 0
KCL1 081256Z 18003KT 01/M02 A3038 RMK A01 T00141024  RH  076%=      5-min Rain = 0
KCL1 081257Z 19003KT 01/M02 A3038 RMK A01 T00141022  RH  077%=      5-min Rain = 0
KCL1 081258Z 19003KT 01/M02 A3038 RMK A01 T00141022  RH  077%=      5-min Rain = 0
KCL1 081259Z 18004KT 01/M02 A3038 RMK A01 T00141021  RH  078%=      5-min Rain = 0
KCL1 081300Z 18003KT 01/M02 A3038 RMK A01 T00141020  RH  078%=      5-min Rain = 0
KCL1 081301Z 18002KT 01/M02 A3038 RMK A01 T00141019  RH  079%=      5-min Rain = 0
KCL1 081302Z 20002KT 01/M02 A3038 RMK A01 T00131020  RH  079%=      5-min Rain = 0
KCL1 081303Z 20002KT 01/M02 A3038 RMK A01 T00141019  RH  079%=      5-min Rain = 0
KCL1 081304Z 23002KT 01/M02 A3038 RMK A01 T00141020  RH  079%=      5-min Rain = 0
KCL1 081305Z 21001KT 01/M02 A3038 RMK A01 T00141021  RH  078%=      5-min Rain = 0
KCL1 081306Z 25000KT 01/M02 A3038 RMK A01 T00141021  RH  078%=      5-min Rain = 0
KCL1 081307Z 27002KT 01/M02 A3038 RMK A01 T00141020  RH  078%=      5-min Rain = 0
KCL1 081308Z 28002KT 01/M02 A3038 RMK A01 T00141020  RH  078%=      5-min Rain = 0
KCL1 081309Z 30001KT 01/M02 A3038 RMK A01 T00141020  RH  078%=      5-min Rain = 0
KCL1 081310Z 24002KT 01/M02 A3038 RMK A01 T00131020  RH  078%=      5-min Rain = 0
KCL1 081311Z 23001KT 01/M02 A3038 RMK A01 T00131020  RH  079%=      5-min Rain = 0
KCL1 081312Z 23001KT 01/M02 A3038 RMK A01 T00131020  RH  079%=      5-min Rain = 0
KCL1 081313Z 26001KT 01/M02 A3038 RMK A01 T00131019  RH  079%=      5-min Rain = 0
KCL1 081314Z 24001KT 01/M02 A3038 RMK A01 T00131019  RH  079%=      5-min Rain = 0
KCL1 081315Z 25002KT 01/M02 A3038 RMK A01 T00131019  RH  079%=      5-min Rain = 0
KCL1 081316Z 23002KT 01/M02 A3038 RMK A01 T00131019  RH  079%=      5-min Rain = 0
KCL1 081317Z 22003KT 01/M02 A3038 RMK A01 T00131019  RH  079%=      5-min Rain = 0
KCL1 081318Z 23002KT 01/M02 A3038 RMK A01 T00131019  RH  079%=      5-min Rain = 0
KCL1 081319Z 24002KT 01/M02 A3038 RMK A01 T00131019  RH  079%=      5-min Rain = 0
KCL1 081320Z 25002KT 01/M02 A3039 RMK A01 T00131018  RH  080%=      5-min Rain = 0
KCL1 081321Z 26002KT 01/M02 A3039 RMK A01 T00131017  RH  080%=      5-min Rain = 0
KCL1 081322Z 28002KT 01/M02 A3039 RMK A01 T00131016  RH  081%=      5-min Rain = 0
KCL1 081323Z 27003KT 01/M02 A3039 RMK A01 T00131016  RH  081%=      5-min Rain = 0
KCL1 081324Z 28002KT 01/M02 A3039 RMK A01 T00131017  RH  081%=      5-min Rain = 0
KCL1 081325Z 30001KT 01/M02 A3039 RMK A01 T00131017  RH  081%=      5-min Rain = 0
KCL1 081326Z 23000KT 01/M02 A3039 RMK A01 T00131016  RH  081%=      5-min Rain = 0
KCL1 081327Z 23001KT 01/M02 A3039 RMK A01 T00131016  RH  081%=      5-min Rain = 0
KCL1 081328Z 22002KT 01/M02 A3039 RMK A01 T00131016  RH  081%=      5-min Rain = 0
KCL1 081329Z 21003KT 01/M02 A3039 RMK A01 T00131016  RH  081%=      5-min Rain = 0
KCL1 081330Z 20003KT 01/M02 A3039 RMK A01 T00131016  RH  081%=      5-min Rain = 0
KCL1 081331Z 19003KT 01/M02 A3039 RMK A01 T00131016  RH  081%=      5-min Rain = 0
KCL1 081332Z 20003KT 01/M02 A3039 RMK A01 T00131015  RH  082%=      5-min Rain = 0
KCL1 081333Z 21003KT 01/M01 A3039 RMK A01 T00131014  RH  082%=      5-min Rain = 0
KCL1 081334Z 19003KT 01/M01 A3039 RMK A01 T00131013  RH  083%=      5-min Rain = 0
KCL1 081335Z 18004KT 01/M01 A3039 RMK A01 T00131012  RH  083%=      5-min Rain = 0
KCL1 081336Z 18004KT 01/M01 A3039 RMK A01 T00131011  RH  084%=      5-min Rain = 0
KCL1 081337Z 19004KT 01/M01 A3039 RMK A01 T00131009  RH  085%=      5-min Rain = 0
KCL1 081338Z 19004KT 01/M01 A3038 RMK A01 T00131008  RH  086%=      5-min Rain = 0
KCL1 081339Z 19003KT 01/M01 A3038 RMK A01 T00121010  RH  085%=      5-min Rain = 0
KCL1 081340Z 18003KT 01/M01 A3038 RMK A01 T00121009  RH  086%=      5-min Rain = 0
KCL1 081341Z 17005KT 01/M01 A3038 RMK A01 T00121007  RH  087%=      5-min Rain = 0
KCL1 081342Z 17004KT 01/M01 A3038 RMK A01 T00121009  RH  086%=      5-min Rain = 0
KCL1 081343Z 17005KT 01/M01 A3038 RMK A01 T00121009  RH  086%=      5-min Rain = 0
KCL1 081344Z 18004KT 01/M01 A3038 RMK A01 T00121009  RH  086%=      5-min Rain = 0
KCL1 081345Z 19004KT 01/M01 A3038 RMK A01 T00121007  RH  087%=      5-min Rain = 0
KCL1 081346Z 19005KT 01/M01 A3038 RMK A01 T00121006  RH  088%=      5-min Rain = 0
KCL1 081347Z 19005KT 01/M01 A3038 RMK A01 T00121007  RH  087%=      5-min Rain = 0
KCL1 081348Z 20005KT 01/M01 A3039 RMK A01 T00121007  RH  087%=      5-min Rain = 0
KCL1 081349Z 19004KT 01/M01 A3039 RMK A01 T00121006  RH  088%=      5-min Rain = 0
KCL1 081350Z 19005KT 01/M01 A3039 RMK A01 T00121006  RH  088%=      5-min Rain = 0
KCL1 081351Z 19005KT 01/M01 A3039 RMK A01 T00121005  RH  088%=      5-min Rain = 0
KCL1 081352Z 20004KT 01/M01 A3039 RMK A01 T00121005  RH  088%=      5-min Rain = 0
KCL1 081353Z 21005KT 01/M00 A3039 RMK A01 T00121004  RH  089%=      5-min Rain = 0
KCL1 081354Z 21003KT 01/M00 A3039 RMK A01 T00121003  RH  090%=      5-min Rain = 0
KCL1 081355Z 20004KT 01/M00 A3039 RMK A01 T00121001  RH  091%=      5-min Rain = 0
KCL1 081356Z 20004KT 01/M00 A3039 RMK A01 T00121002  RH  090%=      5-min Rain = 0
KCL1 081357Z 20004KT 01/M00 A3039 RMK A01 T00121002  RH  090%=      5-min Rain = 0
KCL1 081358Z 19004KT 01/M00 A3039 RMK A01 T00121002  RH  091%=      5-min Rain = 0
KCL1 081359Z 21003KT 01/M00 A3039 RMK A01 T00121002  RH  091%=      5-min Rain = 0
KCL1 081400Z 19004KT 01/M00 A3039 RMK A01 T00121001  RH  091%=      5-min Rain = 0
KCL1 081401Z 19004KT 01/M00 A3039 RMK A01 T00121001  RH  091%=      5-min Rain = 0
KCL1 081402Z 19005KT 01/00 A3039 RMK A01 T00120001  RH  092%=      5-min Rain = 0
KCL1 081403Z 19005KT 01/00 A3039 RMK A01 T00120002  RH  093%=      5-min Rain = 0
KCL1 081404Z 19005KT 01/00 A3039 RMK A01 T00120004  RH  095%=      5-min Rain = 0
KCL1 081405Z 19005KT 01/01 A3039 RMK A01 T00120005  RH  096%=      5-min Rain = 0
KCL1 081406Z 19004KT 01/01 A3039 RMK A01 T00120007  RH  096%=      5-min Rain = 0
KCL1 081407Z 19005KT 01/01 A3039 RMK A01 T00120007  RH  097%=      5-min Rain = 0
KCL1 081408Z 20005KT 01/01 A3038 RMK A01 T00110007  RH  097%=      5-min Rain = 0
KCL1 081409Z 20005KT 01/01 A3038 RMK A01 T00110007  RH  097%=      5-min Rain = 0
KCL1 081410Z 19005KT 01/01 A3038 RMK A01 T00110007  RH  097%=      5-min Rain = 0
KCL1 081411Z 19005KT 01/01 A3038 RMK A01 T00110008  RH  097%=      5-min Rain = 0
KCL1 081412Z 18004KT 01/01 A3038 RMK A01 T00110009  RH  099%=      5-min Rain = 0
KCL1 081413Z 18004KT 01/01 A3038 RMK A01 T00120011  RH  100%=      5-min Rain = 0
KCL1 081414Z 19004KT 01/01 A3038 RMK A01 T00120012  RH  100%=      5-min Rain = 0
KCL1 081415Z 19005KT 01/01 A3038 RMK A01 T00120010  RH  098%=      5-min Rain = 0
KCL1 081416Z 19005KT 01/01 A3038 RMK A01 T00120007  RH  096%=      5-min Rain = 0
KCL1 081417Z 19004KT 01/01 A3038 RMK A01 T00120006  RH  096%=      5-min Rain = 0
KCL1 081418Z 18005KT 01/01 A3038 RMK A01 T00130005  RH  094%=      5-min Rain = 0
KCL1 081419Z 18004KT 01/00 A3038 RMK A01 T00130003  RH  093%=      5-min Rain = 0
KCL1 081420Z 19004KT 01/00 A3038 RMK A01 T00130003  RH  093%=      5-min Rain = 0
KCL1 081421Z 18004KT 01/00 A3038 RMK A01 T00130003  RH  093%=      5-min Rain = 0
KCL1 081422Z 20003KT 01/00 A3038 RMK A01 T00130003  RH  094%=      5-min Rain = 0
KCL1 081423Z 20004KT 01/00 A3038 RMK A01 T00130003  RH  093%=      5-min Rain = 0
KCL1 081424Z 20004KT 01/00 A3038 RMK A01 T00130003  RH  093%=      5-min Rain = 0
KCL1 081425Z 22002KT 01/00 A3038 RMK A01 T00130002  RH  092%=      5-min Rain = 0
KCL1 081426Z 21003KT 01/00 A3038 RMK A01 T00130004  RH  093%=      5-min Rain = 0
KCL1 081427Z 20005KT 01/00 A3038 RMK A01 T00140003  RH  092%=      5-min Rain = 0
KCL1 081428Z 20004KT 01/00 A3038 RMK A01 T00140002  RH  092%=      5-min Rain = 0
KCL1 081429Z 21004KT 01/00 A3038 RMK A01 T00140003  RH  092%=      5-min Rain = 0
KCL1 081430Z 21004KT 01/00 A3038 RMK A01 T00140003  RH  092%=      5-min Rain = 0
KCL1 081431Z 22004KT 01/01 A3039 RMK A01 T00140005  RH  093%=      5-min Rain = 0
KCL1 081432Z 22004KT 01/01 A3039 RMK A01 T00140005  RH  093%=      5-min Rain = 0
KCL1 081433Z 22004KT 01/01 A3039 RMK A01 T00140005  RH  094%=      5-min Rain = 0
KCL1 081434Z 21005KT 01/01 A3039 RMK A01 T00140006  RH  095%=      5-min Rain = 0
KCL1 081435Z 21004KT 01/01 A3039 RMK A01 T00140007  RH  095%=      5-min Rain = 0
KCL1 081436Z 19004KT 01/01 A3039 RMK A01 T00140007  RH  095%=      5-min Rain = 0
KCL1 081437Z 19005KT 01/01 A3039 RMK A01 T00140007  RH  095%=      5-min Rain = 0
KCL1 081438Z 19005KT 01/01 A3038 RMK A01 T00140007  RH  095%=      5-min Rain = 0
KCL1 081439Z 18006KT 02/01 A3038 RMK A01 T00150006  RH  094%=      5-min Rain = 0
KCL1 081440Z 18005KT 02/01 A3038 RMK A01 T00150005  RH  093%=      5-min Rain = 0
KCL1 081441Z 18006KT 02/01 A3038 RMK A01 T00150005  RH  094%=      5-min Rain = 0
KCL1 081442Z 18004KT 02/01 A3038 RMK A01 T00150007  RH  095%=      5-min Rain = 0
KCL1 081443Z 17004KT 02/01 A3038 RMK A01 T00150008  RH  095%=      5-min Rain = 0
KCL1 081444Z 17006KT 02/01 A3038 RMK A01 T00160008  RH  095%=      5-min Rain = 0
KCL1 081445Z 18005KT 02/01 A3038 RMK A01 T00170006  RH  093%=      5-min Rain = 0
KCL1 081446Z 16005KT 02/01 A3038 RMK A01 T00170008  RH  094%=      5-min Rain = 0
KCL1 081447Z 16007KT 02/01 A3038 RMK A01 T00180008  RH  093%=      5-min Rain = 0
KCL1 081448Z 16007KT 02/00 A3038 RMK A01 T00180004  RH  091%=      5-min Rain = 0
KCL1 081449Z 16007KT 02/00 A3038 RMK A01 T00170004  RH  091%=      5-min Rain = 0
KCL1 081450Z 16008KT 02/00 A3038 RMK A01 T00170004  RH  091%=      5-min Rain = 0
KCL1 081451Z 17006KT 02/00 A3038 RMK A01 T00170004  RH  091%=      5-min Rain = 0
KCL1 081452Z 17007KT 02/01 A3038 RMK A01 T00170006  RH  092%=      5-min Rain = 0
KCL1 081453Z 17008KT 02/01 A3038 RMK A01 T00180005  RH  091%=      5-min Rain = 0
KCL1 081454Z 17007KT 02/00 A3038 RMK A01 T00180004  RH  091%=      5-min Rain = 0
KCL1 081455Z 17007KT 02/01 A3038 RMK A01 T00170005  RH  091%=      5-min Rain = 0
KCL1 081456Z 18007KT 02/01 A3038 RMK A01 T00170005  RH  092%=      5-min Rain = 0
KCL1 081457Z 18007KT 02/01 A3038 RMK A01 T00180007  RH  093%=      5-min Rain = 0
KCL1 081458Z 18006KT 02/01 A3038 RMK A01 T00180007  RH  093%=      5-min Rain = 0
KCL1 081459Z 18006KT 02/01 A3038 RMK A01 T00190009  RH  093%=      5-min Rain = 0
KCL1 081500Z 18006KT 02/01 A3038 RMK A01 T00200010  RH  094%=      5-min Rain = 0
KCL1 081501Z 18007KT 02/01 A3038 RMK A01 T00200010  RH  093%=      5-min Rain = 0
KCL1 081502Z 18007KT 02/01 A3038 RMK A01 T00200010  RH  094%=      5-min Rain = 0
KCL1 081503Z 17007KT 02/01 A3038 RMK A01 T00200010  RH  094%=      5-min Rain = 0
KCL1 081504Z 17006KT 02/01 A3038 RMK A01 T00200009  RH  092%=      5-min Rain = 0
KCL1 081505Z 16005KT 02/01 A3038 RMK A01 T00190007  RH  091%=      5-min Rain = 0
KCL1 081506Z 16007KT 02/01 A3038 RMK A01 T00190006  RH  091%=      5-min Rain = 0
KCL1 081507Z 17006KT 02/01 A3038 RMK A01 T00190005  RH  090%=      5-min Rain = 0
KCL1 081508Z 17006KT 02/01 A3038 RMK A01 T00190005  RH  090%=      5-min Rain = 0
KCL1 081509Z 17007KT 02/01 A3038 RMK A01 T00190006  RH  092%=      5-min Rain = 0
KCL1 081510Z 17007KT 02/01 A3038 RMK A01 T00190007  RH  092%=      5-min Rain = 0
KCL1 081511Z 17006KT 02/01 A3038 RMK A01 T00190007  RH  092%=      5-min Rain = 0
KCL1 081512Z 17006KT 02/01 A3038 RMK A01 T00190008  RH  092%=      5-min Rain = 0
KCL1 081513Z 17006KT 02/01 A3038 RMK A01 T00190007  RH  092%=      5-min Rain = 0
KCL1 081514Z 18006KT 02/01 A3038 RMK A01 T00190009  RH  093%=      5-min Rain = 0
KCL1 081515Z 18006KT 02/01 A3038 RMK A01 T00200012  RH  094%=      5-min Rain = 0
KCL1 081516Z 17005KT 02/01 A3038 RMK A01 T00210013  RH  094%=      5-min Rain = 0
KCL1 081517Z 18005KT 02/01 A3038 RMK A01 T00220013  RH  094%=      5-min Rain = 0
KCL1 081518Z 17007KT 02/01 A3038 RMK A01 T00230013  RH  094%=      5-min Rain = 0
KCL1 081519Z 17006KT 02/01 A3038 RMK A01 T00220011  RH  093%=      5-min Rain = 0
KCL1 081520Z 17005KT 02/01 A3038 RMK A01 T00220012  RH  093%=      5-min Rain = 0
KCL1 081521Z 17007KT 02/01 A3038 RMK A01 T00220012  RH  093%=      5-min Rain = 0
KCL1 081522Z 17007KT 02/01 A3038 RMK A01 T00220012  RH  093%=      5-min Rain = 0
KCL1 081523Z 17006KT 02/01 A3038 RMK A01 T00220012  RH  093%=      5-min Rain = 0
KCL1 081524Z 17007KT 02/01 A3038 RMK A01 T00220012  RH  093%=      5-min Rain = 0
KCL1 081525Z 17006KT 02/01 A3038 RMK A01 T00220012  RH  093%=      5-min Rain = 0
KCL1 081526Z 17006KT 02/01 A3038 RMK A01 T00220012  RH  093%=      5-min Rain = 0
KCL1 081527Z 17005KT 02/01 A3038 RMK A01 T00230012  RH  092%=      5-min Rain = 0
KCL1 081528Z 16006KT 02/01 A3038 RMK A01 T00240013  RH  092%=      5-min Rain = 0
KCL1 081529Z 16007KT 02/01 A3038 RMK A01 T00240011  RH  091%=      5-min Rain = 0
KCL1 081530Z 17007KT 02/01 A3038 RMK A01 T00240013  RH  092%=      5-min Rain = 0
KCL1 081531Z 18006KT 02/02 A3038 RMK A01 T00240016  RH  094%=      5-min Rain = 0
KCL1 081532Z 18007KT 02/02 A3038 RMK A01 T00240015  RH  094%=      5-min Rain = 0
KCL1 081533Z 19006KT 02/02 A3038 RMK A01 T00240016  RH  094%=      5-min Rain = 0
KCL1 081534Z 18006KT 02/02 A3038 RMK A01 T00240018  RH  095%=      5-min Rain = 0
KCL1 081535Z 18006KT 03/02 A3038 RMK A01 T00250017  RH  095%=      5-min Rain = 0
KCL1 081536Z 18006KT 03/02 A3038 RMK A01 T00250017  RH  095%=      5-min Rain = 0
KCL1 081537Z 19006KT 03/02 A3038 RMK A01 T00250017  RH  095%=      5-min Rain = 0
KCL1 081538Z 18005KT 03/02 A3038 RMK A01 T00250018  RH  096%=      5-min Rain = 0
KCL1 081539Z 19006KT 03/02 A3038 RMK A01 T00260019  RH  096%=      5-min Rain = 0
KCL1 081540Z 18007KT 03/02 A3038 RMK A01 T00260019  RH  095%=      5-min Rain = 0
KCL1 081541Z 18007KT 03/02 A3038 RMK A01 T00260019  RH  095%=      5-min Rain = 0
KCL1 081542Z 19005KT 03/02 A3038 RMK A01 T00260020  RH  096%=      5-min Rain = 0
KCL1 081543Z 19006KT 03/02 A3038 RMK A01 T00270019  RH  095%=      5-min Rain = 0
KCL1 081544Z 20004KT 03/02 A3039 RMK A01 T00270019  RH  094%=      5-min Rain = 0
KCL1 081545Z 20004KT 03/02 A3039 RMK A01 T00270019  RH  094%=      5-min Rain = 0
KCL1 081546Z 21005KT 03/02 A3039 RMK A01 T00270017  RH  093%=      5-min Rain = 0
KCL1 081547Z 20005KT 03/02 A3039 RMK A01 T00270015  RH  092%=      5-min Rain = 0
KCL1 081548Z 20005KT 03/02 A3039 RMK A01 T00270016  RH  092%=      5-min Rain = 0
KCL1 081549Z 20006KT 03/02 A3039 RMK A01 T00260015  RH  092%=      5-min Rain = 0
KCL1 081550Z 19005KT 03/02 A3039 RMK A01 T00260016  RH  093%=      5-min Rain = 0
KCL1 081551Z 19004KT 03/02 A3039 RMK A01 T00260018  RH  095%=      5-min Rain = 0
KCL1 081552Z 19004KT 03/02 A3039 RMK A01 T00270020  RH  095%=      5-min Rain = 0
KCL1 081553Z 19003KT 03/02 A3039 RMK A01 T00270018  RH  094%=      5-min Rain = 0
KCL1 081554Z 22003KT 03/02 A3039 RMK A01 T00280019  RH  094%=      5-min Rain = 0
KCL1 081555Z 20004KT 03/02 A3039 RMK A01 T00290018  RH  093%=      5-min Rain = 0
KCL1 081556Z 18004KT 03/02 A3039 RMK A01 T00290017  RH  092%=      5-min Rain = 0
KCL1 081557Z 23003KT 03/02 A3039 RMK A01 T00290018  RH  093%=      5-min Rain = 0
KCL1 081558Z 21004KT 03/02 A3039 RMK A01 T00290018  RH  092%=      5-min Rain = 0
KCL1 081559Z 21005KT 03/02 A3039 RMK A01 T00290017  RH  092%=      5-min Rain = 0
KCL1 081600Z 19006KT 03/02 A3039 RMK A01 T00290018  RH  093%=      5-min Rain = 0
KCL1 081601Z 20005KT 03/02 A3039 RMK A01 T00290020  RH  094%=      5-min Rain = 0
KCL1 081602Z 20004KT 03/02 A3039 RMK A01 T00290019  RH  093%=      5-min Rain = 0
KCL1 081603Z 20004KT 03/02 A3038 RMK A01 T00290018  RH  093%=      5-min Rain = 0
KCL1 081604Z 19005KT 03/02 A3038 RMK A01 T00290019  RH  093%=      5-min Rain = 0
KCL1 081605Z 18004KT 03/02 A3038 RMK A01 T00290019  RH  093%=      5-min Rain = 0
KCL1 081606Z 19004KT 03/02 A3038 RMK A01 T00290018  RH  092%=      5-min Rain = 0
KCL1 081607Z 19004KT 03/02 A3038 RMK A01 T00290019  RH  093%=      5-min Rain = 0
KCL1 081608Z 18005KT 03/02 A3038 RMK A01 T00300020  RH  093%=      5-min Rain = 0
KCL1 081609Z 18006KT 03/02 A3038 RMK A01 T00310019  RH  092%=      5-min Rain = 0
KCL1 081610Z 18006KT 03/02 A3038 RMK A01 T00310020  RH  092%=      5-min Rain = 0
KCL1 081611Z 18006KT 03/02 A3038 RMK A01 T00310019  RH  092%=      5-min Rain = 0
KCL1 081612Z 18005KT 03/02 A3038 RMK A01 T00310019  RH  092%=      5-min Rain = 0
KCL1 081613Z 18006KT 03/02 A3038 RMK A01 T00310020  RH  093%=      5-min Rain = 0
KCL1 081614Z 18005KT 03/02 A3038 RMK A01 T00320020  RH  092%=      5-min Rain = 0
KCL1 081615Z 18006KT 03/02 A3038 RMK A01 T00320020  RH  092%=      5-min Rain = 0
KCL1 081616Z 18005KT 03/02 A3038 RMK A01 T00320024  RH  094%=      5-min Rain = 0
KCL1 081617Z 19004KT 03/02 A3038 RMK A01 T00330024  RH  094%=      5-min Rain = 0
KCL1 081618Z 18005KT 03/02 A3038 RMK A01 T00340024  RH  093%=      5-min Rain = 0
KCL1 081619Z 17006KT 04/02 A3038 RMK A01 T00350022  RH  091%=      5-min Rain = 0
KCL1 081620Z 18007KT 04/02 A3037 RMK A01 T00350022  RH  091%=      5-min Rain = 0
KCL1 081621Z 17007KT 04/02 A3037 RMK A01 T00350024  RH  093%=      5-min Rain = 0
KCL1 081622Z 18007KT 04/02 A3037 RMK A01 T00350024  RH  093%=      5-min Rain = 0
KCL1 081623Z 18007KT 04/03 A3037 RMK A01 T00360026  RH  093%=      5-min Rain = 0
KCL1 081624Z 18008KT 04/03 A3037 RMK A01 T00360026  RH  093%=      5-min Rain = 0
KCL1 081625Z 18008KT 04/03 A3037 RMK A01 T00360026  RH  093%=      5-min Rain = 0
KCL1 081626Z 18007KT 04/03 A3037 RMK A01 T00360027  RH  094%=      5-min Rain = 0
KCL1 081627Z 18008KT 04/03 A3037 RMK A01 T00360028  RH  094%=      5-min Rain = 0
KCL1 081628Z 18008KT 04/03 A3037 RMK A01 T00370030  RH  095%=      5-min Rain = 0
KCL1 081629Z 18009KT 04/03 A3037 RMK A01 T00370029  RH  094%=      5-min Rain = 0
KCL1 081630Z 18007KT 04/03 A3037 RMK A01 T00380029  RH  094%=      5-min Rain = 0
KCL1 081631Z 19008KT 04/03 A3037 RMK A01 T00380029  RH  094%=      5-min Rain = 0
KCL1 081632Z 18007KT 04/03 A3037 RMK A01 T00380028  RH  093%=      5-min Rain = 0
KCL1 081633Z 17009KT 04/03 A3037 RMK A01 T00380031  RH  095%=      5-min Rain = 0
KCL1 081634Z 18008KT 04/03 A3037 RMK A01 T00390030  RH  094%=      5-min Rain = 0
KCL1 081635Z 18008KT 04/03 A3037 RMK A01 T00390029  RH  093%=      5-min Rain = 0
KCL1 081636Z 19009KT 04/03 A3037 RMK A01 T00380027  RH  092%=      5-min Rain = 0
KCL1 081637Z 18008KT 04/03 A3037 RMK A01 T00380027  RH  093%=      5-min Rain = 0
KCL1 081638Z 19008KT 04/03 A3037 RMK A01 T00380028  RH  093%=      5-min Rain = 0
KCL1 081639Z 19007KT 04/03 A3037 RMK A01 T00380026  RH  092%=      5-min Rain = 0
KCL1 081640Z 18006KT 04/03 A3037 RMK A01 T00390025  RH  091%=      5-min Rain = 0
KCL1 081641Z 19006KT 04/03 A3037 RMK A01 T00390026  RH  091%=      5-min Rain = 0
KCL1 081642Z 18006KT 04/03 A3037 RMK A01 T00400029  RH  092%=      5-min Rain = 0
KCL1 081643Z 20007KT 04/03 A3037 RMK A01 T00420029  RH  092%=      5-min Rain = 0
KCL1 081644Z 19008KT 04/03 A3037 RMK A01 T00420028  RH  090%=      5-min Rain = 0
KCL1 081645Z 19006KT 04/03 A3037 RMK A01 T00420027  RH  090%=      5-min Rain = 0
KCL1 081646Z 18006KT 04/03 A3037 RMK A01 T00410025  RH  089%=      5-min Rain = 0
KCL1 081647Z 19005KT 04/03 A3037 RMK A01 T00410029  RH  092%=      5-min Rain = 0
KCL1 081648Z 18006KT 04/03 A3037 RMK A01 T00420029  RH  091%=      5-min Rain = 0
KCL1 081649Z 19006KT 04/03 A3037 RMK A01 T00430029  RH  091%=      5-min Rain = 0
KCL1 081650Z 18005KT 04/03 A3037 RMK A01 T00430028  RH  090%=      5-min Rain = 0
KCL1 081651Z 18005KT 04/03 A3037 RMK A01 T00440029  RH  090%=      5-min Rain = 0
KCL1 081652Z 18007KT 05/03 A3037 RMK A01 T00450029  RH  090%=      5-min Rain = 0
KCL1 081653Z 19007KT 05/03 A3037 RMK A01 T00450028  RH  089%=      5-min Rain = 0
KCL1 081654Z 20006KT 05/03 A3037 RMK A01 T00450027  RH  088%=      5-min Rain = 0
KCL1 081655Z 19006KT 04/03 A3037 RMK A01 T00440028  RH  089%=      5-min Rain = 0
KCL1 081656Z 19005KT 04/03 A3037 RMK A01 T00440031  RH  091%=      5-min Rain = 0
KCL1 081657Z 18006KT 05/03 A3037 RMK A01 T00460030  RH  090%=      5-min Rain = 0
KCL1 081658Z 18008KT 05/03 A3037 RMK A01 T00460030  RH  089%=      5-min Rain = 0
KCL1 081659Z 18008KT 05/03 A3037 RMK A01 T00460029  RH  089%=      5-min Rain = 0
KCL1 081700Z 18007KT 05/03 A3037 RMK A01 T00450029  RH  089%=      5-min Rain = 0
KCL1 081701Z 18006KT 05/03 A3037 RMK A01 T00450031  RH  091%=      5-min Rain = 0
KCL1 081702Z 18007KT 05/03 A3037 RMK A01 T00450031  RH  090%=      5-min Rain = 0
KCL1 081703Z 20007KT 05/03 A3037 RMK A01 T00460030  RH  090%=      5-min Rain = 0
KCL1 081704Z 19006KT 05/03 A3036 RMK A01 T00460030  RH  090%=      5-min Rain = 0
KCL1 081705Z 19007KT 05/03 A3036 RMK A01 T00460030  RH  090%=      5-min Rain = 0
KCL1 081706Z 18006KT 05/03 A3036 RMK A01 T00460031  RH  090%=      5-min Rain = 0
KCL1 081707Z 19006KT 05/03 A3036 RMK A01 T00470033  RH  091%=      5-min Rain = 0
KCL1 081708Z 19006KT 05/03 A3036 RMK A01 T00480033  RH  090%=      5-min Rain = 0
KCL1 081709Z 18008KT 05/03 A3036 RMK A01 T00480032  RH  089%=      5-min Rain = 0
KCL1 081710Z 19008KT 05/03 A3036 RMK A01 T00480032  RH  089%=      5-min Rain = 0
KCL1 081711Z 18007KT 05/03 A3036 RMK A01 T00480033  RH  090%=      5-min Rain = 0
KCL1 081712Z 18006KT 05/04 A3036 RMK A01 T00490036  RH  092%=      5-min Rain = 0
KCL1 081713Z 18007KT 05/04 A3036 RMK A01 T00510038  RH  092%=      5-min Rain = 0
KCL1 081714Z 20007KT 05/04 A3036 RMK A01 T00520035  RH  089%=      5-min Rain = 0
KCL1 081715Z 19007KT 05/03 A3036 RMK A01 T00510034  RH  088%=      5-min Rain = 0
KCL1 081716Z 18006KT 05/03 A3036 RMK A01 T00500033  RH  089%=      5-min Rain = 0
KCL1 081717Z 19006KT 05/04 A3036 RMK A01 T00500036  RH  091%=      5-min Rain = 0
KCL1 081718Z 18006KT 05/04 A3036 RMK A01 T00510036  RH  090%=      5-min Rain = 0
KCL1 081719Z 19005KT 05/04 A3036 RMK A01 T00520036  RH  090%=      5-min Rain = 0
KCL1 081720Z 18008KT 05/04 A3036 RMK A01 T00520036  RH  090%=      5-min Rain = 0
KCL1 081721Z 18007KT 05/04 A3036 RMK A01 T00520036  RH  089%=      5-min Rain = 0
KCL1 081722Z 18008KT 05/04 A3036 RMK A01 T00520037  RH  090%=      5-min Rain = 0
KCL1 081723Z 18006KT 05/04 A3036 RMK A01 T00530036  RH  089%=      5-min Rain = 0
KCL1 081724Z 19005KT 05/04 A3036 RMK A01 T00530037  RH  089%=      5-min Rain = 0
KCL1 081725Z 20006KT 05/04 A3036 RMK A01 T00540036  RH  088%=      5-min Rain = 0
KCL1 081726Z 19008KT 05/04 A3036 RMK A01 T00530035  RH  088%=      5-min Rain = 0
KCL1 081727Z 19008KT 05/04 A3036 RMK A01 T00530036  RH  089%=      5-min Rain = 0
KCL1 081728Z 19008KT 05/04 A3035 RMK A01 T00520036  RH  089%=      5-min Rain = 0
KCL1 081729Z 19007KT 05/04 A3036 RMK A01 T00520037  RH  090%=      5-min Rain = 0
KCL1 081730Z 20007KT 05/04 A3035 RMK A01 T00520036  RH  089%=      5-min Rain = 0
KCL1 081731Z 20004KT 05/04 A3035 RMK A01 T00520037  RH  090%=      5-min Rain = 0
KCL1 081732Z 18005KT 05/04 A3035 RMK A01 T00530038  RH  090%=      5-min Rain = 0
KCL1 081733Z 19006KT 06/04 A3035 RMK A01 T00550039  RH  090%=      5-min Rain = 0
KCL1 081734Z 20006KT 06/04 A3035 RMK A01 T00550037  RH  088%=      5-min Rain = 0
KCL1 081735Z 20006KT 06/04 A3035 RMK A01 T00550036  RH  087%=      5-min Rain = 0
KCL1 081736Z 22004KT 06/04 A3035 RMK A01 T00560037  RH  088%=      5-min Rain = 0
KCL1 081737Z 19005KT 06/04 A3035 RMK A01 T00550038  RH  088%=      5-min Rain = 0
KCL1 081738Z 20005KT 06/04 A3035 RMK A01 T00550038  RH  089%=      5-min Rain = 0
KCL1 081739Z 20007KT 06/04 A3035 RMK A01 T00550037  RH  088%=      5-min Rain = 0
KCL1 081740Z 20004KT 06/04 A3035 RMK A01 T00550038  RH  088%=      5-min Rain = 0
KCL1 081741Z 21006KT 06/04 A3035 RMK A01 T00560039  RH  089%=      5-min Rain = 0
KCL1 081742Z 20006KT 06/04 A3035 RMK A01 T00560039  RH  088%=      5-min Rain = 0
KCL1 081743Z 20007KT 06/04 A3035 RMK A01 T00570039  RH  089%=      5-min Rain = 0
KCL1 081744Z 19006KT 06/04 A3035 RMK A01 T00570040  RH  089%=      5-min Rain = 0
KCL1 081745Z 22008KT 06/04 A3035 RMK A01 T00570039  RH  088%=      5-min Rain = 0
KCL1 081746Z 20009KT 06/04 A3035 RMK A01 T00570040  RH  089%=      5-min Rain = 0
KCL1 081747Z 23009KT 06/04 A3034 RMK A01 T00570040  RH  089%=      5-min Rain = 0
KCL1 081748Z 22007KT 06/04 A3034 RMK A01 T00560041  RH  090%=      5-min Rain = 0
KCL1 081749Z 22008KT 06/04 A3034 RMK A01 T00560041  RH  090%=      5-min Rain = 0
KCL1 081750Z 22009KT 06/04 A3034 RMK A01 T00570041  RH  090%=      5-min Rain = 0
KCL1 081751Z 21007KT 06/04 A3034 RMK A01 T00570041  RH  089%=      5-min Rain = 0
KCL1 081752Z 22008KT 06/04 A3034 RMK A01 T00570041  RH  090%=      5-min Rain = 0
KCL1 081753Z 22008KT 06/04 A3035 RMK A01 T00570042  RH  090%=      5-min Rain = 0
KCL1 081754Z 22007KT 06/04 A3034 RMK A01 T00570044  RH  091%=      5-min Rain = 0
KCL1 081755Z 22009KT 06/05 A3034 RMK A01 T00580045  RH  091%=      5-min Rain = 0
KCL1 081756Z 22009KT 06/05 A3034 RMK A01 T00590045  RH  091%=      5-min Rain = 0
KCL1 081757Z 21010KT 06/05 A3034 RMK A01 T00590045  RH  091%=      5-min Rain = 0
KCL1 081758Z 21012KT 06/05 A3034 RMK A01 T00590045  RH  091%=      5-min Rain = 0
KCL1 081759Z 21010KT 06/05 A3035 RMK A01 T00600046  RH  091%=      5-min Rain = 0
KCL1 081800Z 22008KT 06/05 A3035 RMK A01 T00600046  RH  091%=      5-min Rain = 0
KCL1 081801Z 22007KT 06/05 A3035 RMK A01 T00600046  RH  091%=      5-min Rain = 0
KCL1 081802Z 21007KT 06/05 A3034 RMK A01 T00610046  RH  090%=      5-min Rain = 0
KCL1 081803Z 20008KT 06/05 A3034 RMK A01 T00620047  RH  090%=      5-min Rain = 0
KCL1 081804Z 22008KT 06/05 A3034 RMK A01 T00620046  RH  090%=      5-min Rain = 0
KCL1 081805Z 22007KT 06/05 A3034 RMK A01 T00620045  RH  089%=      5-min Rain = 0
KCL1 081806Z 22006G11KT 06/05 A3034 RMK A01 T00620046  RH  090%=      5-min Rain = 0
KCL1 081807Z 22007KT 06/05 A3034 RMK A01 T00620045  RH  089%=      5-min Rain = 0
KCL1 081808Z 23006KT 06/05 A3034 RMK A01 T00610045  RH  089%=      5-min Rain = 0
KCL1 081809Z 19005KT 06/05 A3034 RMK A01 T00610045  RH  089%=      5-min Rain = 0
KCL1 081810Z 23006KT 06/05 A3034 RMK A01 T00620045  RH  089%=      5-min Rain = 0
KCL1 081816Z 21010KT 06/04 A3033 RMK A01 T00610044  RH  089%=      5-min Rain = 0
KCL1 081817Z 22010KT 06/05 A3033 RMK A01 T00610045  RH  089%=      5-min Rain = 0
KCL1 081818Z 21010KT 06/05 A3033 RMK A01 T00610045  RH  090%=      5-min Rain = 0
KCL1 081819Z 23009KT 06/05 A3033 RMK A01 T00610045  RH  090%=      5-min Rain = 0
KCL1 081820Z 24006KT 06/04 A3033 RMK A01 T00610044  RH  089%=      5-min Rain = 0
KCL1 081821Z 25007KT 06/05 A3033 RMK A01 T00610045  RH  090%=      5-min Rain = 0
KCL1 081822Z 24005KT 06/05 A3033 RMK A01 T00620046  RH  089%=      5-min Rain = 0
KCL1 081823Z 25010KT 06/05 A3033 RMK A01 T00620045  RH  089%=      5-min Rain = 0
KCL1 081824Z 24010KT 06/04 A3033 RMK A01 T00620044  RH  088%=      5-min Rain = 0
KCL1 081825Z 25006KT 06/04 A3033 RMK A01 T00610044  RH  089%=      5-min Rain = 0
KCL1 081826Z 24010G15KT 06/05 A3033 RMK A01 T00610045  RH  090%=      5-min Rain = 0
KCL1 081827Z 25008KT 06/04 A3033 RMK A01 T00620044  RH  089%=      5-min Rain = 0
KCL1 081828Z 22005G11KT 06/05 A3033 RMK A01 T00620045  RH  089%=      5-min Rain = 0
KCL1 081829Z 22007KT 06/05 A3033 RMK A01 T00620045  RH  089%=      5-min Rain = 0
KCL1 081830Z 22009KT 06/05 A3033 RMK A01 T00620045  RH  089%=      5-min Rain = 0
KCL1 081831Z 22011KT 06/04 A3033 RMK A01 T00620044  RH  088%=      5-min Rain = 0
KCL1 081832Z 21009KT 06/04 A3033 RMK A01 T00620044  RH  089%=      5-min Rain = 0
KCL1 081833Z 21008KT 06/04 A3033 RMK A01 T00610044  RH  089%=      5-min Rain = 0
KCL1 081834Z 20007KT 06/05 A3033 RMK A01 T00610045  RH  089%=      5-min Rain = 0
KCL1 081835Z 21007KT 06/05 A3033 RMK A01 T00610045  RH  089%=      5-min Rain = 0
KCL1 081836Z 21007KT 06/05 A3033 RMK A01 T00620045  RH  089%=      5-min Rain = 0
KCL1 081837Z 22009KT 06/04 A3033 RMK A01 T00620044  RH  088%=      5-min Rain = 0
KCL1 081838Z 23007KT 06/05 A3033 RMK A01 T00620045  RH  089%=      5-min Rain = 0
KCL1 081839Z 22009KT 06/05 A3033 RMK A01 T00620045  RH  089%=      5-min Rain = 0
KCL1 081840Z 20009KT 06/05 A3032 RMK A01 T00620045  RH  089%=      5-min Rain = 0
KCL1 081841Z 20008KT 06/05 A3032 RMK A01 T00620045  RH  089%=      5-min Rain = 0
KCL1 081842Z 22008KT 06/05 A3032 RMK A01 T00630046  RH  089%=      5-min Rain = 0
KCL1 081843Z 22008KT 06/04 A3032 RMK A01 T00630044  RH  088%=      5-min Rain = 0
KCL1 081844Z 22007KT 06/04 A3032 RMK A01 T00620044  RH  088%=      5-min Rain = 0
KCL1 081845Z 21008KT 06/05 A3032 RMK A01 T00620045  RH  089%=      5-min Rain = 0
KCL1 081846Z 21011KT 06/05 A3032 RMK A01 T00630045  RH  088%=      5-min Rain = 0
KCL1 081847Z 20010KT 06/04 A3032 RMK A01 T00620044  RH  088%=      5-min Rain = 0
KCL1 081848Z 20006KT 06/05 A3032 RMK A01 T00620046  RH  089%=      5-min Rain = 0
KCL1 081849Z 19011KT 06/05 A3032 RMK A01 T00640047  RH  089%=      5-min Rain = 0
KCL1 081850Z 19011KT 06/05 A3032 RMK A01 T00640046  RH  088%=      5-min Rain = 0
KCL1 081851Z 19009KT 07/05 A3032 RMK A01 T00650045  RH  088%=      5-min Rain = 0
KCL1 081852Z 20009KT 07/05 A3032 RMK A01 T00650046  RH  088%=      5-min Rain = 0
KCL1 081853Z 21007KT 06/05 A3032 RMK A01 T00640045  RH  088%=      5-min Rain = 0
KCL1 081854Z 21008KT 06/05 A3031 RMK A01 T00640046  RH  088%=      5-min Rain = 0
KCL1 081855Z 21008KT 07/05 A3031 RMK A01 T00650045  RH  087%=      5-min Rain = 0
KCL1 081856Z 22009KT 07/05 A3031 RMK A01 T00660046  RH  087%=      5-min Rain = 0
KCL1 081857Z 21009KT 07/05 A3031 RMK A01 T00660045  RH  087%=      5-min Rain = 0
KCL1 081858Z 20011KT 07/05 A3031 RMK A01 T00660045  RH  087%=      5-min Rain = 0
KCL1 081859Z 21010KT 07/05 A3031 RMK A01 T00660045  RH  086%=      5-min Rain = 0
KCL1 081900Z 21011KT 07/04 A3031 RMK A01 T00650044  RH  087%=      5-min Rain = 0
KCL1 081901Z 22010KT 07/05 A3031 RMK A01 T00650045  RH  087%=      5-min Rain = 0
KCL1 081902Z 22008KT 07/05 A3031 RMK A01 T00650045  RH  087%=      5-min Rain = 0
KCL1 081903Z 21011KT 07/05 A3031 RMK A01 T00650045  RH  087%=      5-min Rain = 0
KCL1 081904Z 21009KT 07/05 A3031 RMK A01 T00650045  RH  087%=      5-min Rain = 0
KCL1 081905Z 21010KT 07/04 A3031 RMK A01 T00650044  RH  087%=      5-min Rain = 0
KCL1 081906Z 22010KT 06/05 A3031 RMK A01 T00640045  RH  087%=      5-min Rain = 0
KCL1 081907Z 21009KT 07/05 A3031 RMK A01 T00650045  RH  087%=      5-min Rain = 0
KCL1 081908Z 22009KT 07/05 A3031 RMK A01 T00650045  RH  087%=      5-min Rain = 0
KCL1 081909Z 23007G12KT 07/05 A3031 RMK A01 T00650046  RH  087%=      5-min Rain = 0
KCL1 081910Z 22010KT 07/05 A3031 RMK A01 T00660045  RH  087%=      5-min Rain = 0
KCL1 081911Z 22011KT 07/04 A3031 RMK A01 T00660044  RH  086%=      5-min Rain = 0
KCL1 081912Z 23010KT 07/05 A303 RMK A01 T00650045  RH  087%=      5-min Rain = 0
KCL1 081913Z 22011KT 07/05 A303 RMK A01 T00660045  RH  086%=      5-min Rain = 0
KCL1 081914Z 22009KT 07/05 A303 RMK A01 T00660045  RH  087%=      5-min Rain = 0
KCL1 081915Z 22008KT 07/05 A303 RMK A01 T00660045  RH  086%=      5-min Rain = 0
KCL1 081916Z 23011KT 07/05 A303 RMK A01 T00660045  RH  086%=      5-min Rain = 0
KCL1 081917Z 21009KT 07/05 A303 RMK A01 T00660045  RH  086%=      5-min Rain = 0
KCL1 081918Z 21007KT 07/05 A303 RMK A01 T00660046  RH  087%=      5-min Rain = 0
KCL1 081919Z 21011KT 07/05 A303 RMK A01 T00660046  RH  087%=      5-min Rain = 0
KCL1 081920Z 21010KT 07/05 A303 RMK A01 T00670045  RH  086%=      5-min Rain = 0
KCL1 081921Z 21010KT 07/05 A303 RMK A01 T00670045  RH  086%=      5-min Rain = 0
KCL1 081922Z 22010KT 07/05 A303 RMK A01 T00670045  RH  086%=      5-min Rain = 0
KCL1 081923Z 21008KT 07/05 A303 RMK A01 T00670045  RH  086%=      5-min Rain = 0
KCL1 081924Z 22006KT 07/05 A303 RMK A01 T00680046  RH  086%=      5-min Rain = 0
KCL1 081925Z 21008KT 07/05 A303 RMK A01 T00690046  RH  085%=      5-min Rain = 0
KCL1 081926Z 21008KT 07/05 A303 RMK A01 T00690045  RH  085%=      5-min Rain = 0
KCL1 081927Z 21009KT 07/05 A303 RMK A01 T00700046  RH  085%=      5-min Rain = 0
KCL1 081928Z 20009G14KT 07/05 A303 RMK A01 T00700046  RH  085%=      5-min Rain = 0
KCL1 081929Z 21008KT 07/05 A303 RMK A01 T00700045  RH  084%=      5-min Rain = 0
KCL1 081930Z 20009KT 07/05 A303 RMK A01 T00690045  RH  085%=      5-min Rain = 0
KCL1 081931Z 22010KT 07/05 A303 RMK A01 T00690045  RH  085%=      5-min Rain = 0
KCL1 081932Z 22010KT 07/04 A303 RMK A01 T00690044  RH  084%=      5-min Rain = 0
KCL1 081933Z 22011KT 07/04 A303 RMK A01 T00680044  RH  085%=      5-min Rain = 0
KCL1 081934Z 23009KT 07/04 A303 RMK A01 T00680044  RH  085%=      5-min Rain = 0
KCL1 081935Z 22010KT 07/04 A303 RMK A01 T00680044  RH  085%=      5-min Rain = 0
KCL1 081936Z 22008KT 07/05 A303 RMK A01 T00690045  RH  085%=      5-min Rain = 0
KCL1 081937Z 24007KT 07/04 A303 RMK A01 T00690044  RH  084%=      5-min Rain = 0
KCL1 081938Z 22009KT 07/05 A303 RMK A01 T00690045  RH  085%=      5-min Rain = 0
KCL1 081939Z 22005KT 07/05 A303 RMK A01 T00700045  RH  084%=      5-min Rain = 0
KCL1 081940Z 24006KT 07/05 A3029 RMK A01 T00710045  RH  084%=      5-min Rain = 0
KCL1 081941Z 21006KT 07/05 A3029 RMK A01 T00720046  RH  083%=      5-min Rain = 0
KCL1 081942Z 22004KT 07/05 A3029 RMK A01 T00720045  RH  083%=      5-min Rain = 0
KCL1 081943Z 22006KT 07/05 A3029 RMK A01 T00720045  RH  083%=      5-min Rain = 0
KCL1 081944Z 23005KT 07/05 A3029 RMK A01 T00730045  RH  083%=      5-min Rain = 0
KCL1 081945Z 24004KT 07/05 A3029 RMK A01 T00730045  RH  083%=      5-min Rain = 0
KCL1 081946Z 25006KT 07/05 A3029 RMK A01 T00740046  RH  082%=      5-min Rain = 0
KCL1 081947Z 24007KT 08/05 A3029 RMK A01 T00750047  RH  082%=      5-min Rain = 0
KCL1 081948Z 25007KT 08/05 A3029 RMK A01 T00760045  RH  081%=      5-min Rain = 0
KCL1 081949Z 22006KT 08/05 A3029 RMK A01 T00760045  RH  081%=      5-min Rain = 0
KCL1 081950Z 22005KT 08/05 A3029 RMK A01 T00760045  RH  081%=      5-min Rain = 0
KCL1 081951Z 23010KT 08/05 A3029 RMK A01 T00760045  RH  081%=      5-min Rain = 0
KCL1 081952Z 22008KT 08/05 A3029 RMK A01 T00760045  RH  081%=      5-min Rain = 0
KCL1 081953Z 22005KT 08/05 A3029 RMK A01 T00770047  RH  082%=      5-min Rain = 0
KCL1 081954Z 24007KT 08/05 A3029 RMK A01 T00780046  RH  080%=      5-min Rain = 0
KCL1 081955Z 22008KT 08/05 A3029 RMK A01 T00780045  RH  080%=      5-min Rain = 0
KCL1 081956Z 21008KT 08/05 A3029 RMK A01 T00780046  RH  080%=      5-min Rain = 0
KCL1 081957Z 21008KT 08/05 A3029 RMK A01 T00770046  RH  081%=      5-min Rain = 0
KCL1 081958Z 20008KT 08/05 A3029 RMK A01 T00780046  RH  080%=      5-min Rain = 0
KCL1 081959Z 21005KT 08/05 A3029 RMK A01 T00790047  RH  080%=      5-min Rain = 0
KCL1 082000Z 21007KT 08/05 A3029 RMK A01 T00820049  RH  080%=      5-min Rain = 0
KCL1 082001Z 21009KT 08/05 A3029 RMK A01 T00830047  RH  078%=      5-min Rain = 0
KCL1 082002Z 21011KT 08/05 A3029 RMK A01 T00830046  RH  077%=      5-min Rain = 0
KCL1 082003Z 21007KT 08/05 A3029 RMK A01 T00830045  RH  077%=      5-min Rain = 0
KCL1 082004Z 21008KT 08/04 A3028 RMK A01 T00810044  RH  078%=      5-min Rain = 0
KCL1 082005Z 21008KT 08/05 A3028 RMK A01 T00800045  RH  079%=      5-min Rain = 0
KCL1 082006Z 22007KT 08/05 A3028 RMK A01 T00810045  RH  078%=      5-min Rain = 0
KCL1 082007Z 23008KT 08/05 A3028 RMK A01 T00810045  RH  078%=      5-min Rain = 0
KCL1 082008Z 24006KT 08/05 A3028 RMK A01 T00820046  RH  078%=      5-min Rain = 0
KCL1 082009Z 22007KT 08/05 A3028 RMK A01 T00840046  RH  077%=      5-min Rain = 0
KCL1 082010Z 19010KT 09/05 A3028 RMK A01 T00860047  RH  076%=      5-min Rain = 0
KCL1 082011Z 21007KT 09/05 A3028 RMK A01 T00870046  RH  076%=      5-min Rain = 0
KCL1 082012Z 23011G16KT 09/05 A3028 RMK A01 T00880047  RH  076%=      5-min Rain = 0
KCL1 082013Z 22010KT 09/05 A3028 RMK A01 T00890046  RH  074%=      5-min Rain = 0
KCL1 082014Z 23010KT 09/05 A3028 RMK A01 T00890046  RH  074%=      5-min Rain = 0
KCL1 082015Z 23009KT 09/04 A3028 RMK A01 T00880044  RH  074%=      5-min Rain = 0
KCL1 082016Z 23009KT 09/05 A3028 RMK A01 T00870045  RH  075%=      5-min Rain = 0
KCL1 082017Z 21008KT 09/05 A3028 RMK A01 T00870045  RH  075%=      5-min Rain = 0
KCL1 082018Z 21007KT 09/05 A3028 RMK A01 T00880045  RH  075%=      5-min Rain = 0
KCL1 082019Z 21008KT 09/05 A3028 RMK A01 T00890046  RH  075%=      5-min Rain = 0
KCL1 082020Z 22010KT 09/05 A3028 RMK A01 T00910047  RH  074%=      5-min Rain = 0
KCL1 082021Z 22008G13KT 09/04 A3028 RMK A01 T00890044  RH  073%=      5-min Rain = 0
KCL1 082022Z 23008KT 09/04 A3028 RMK A01 T00870044  RH  075%=      5-min Rain = 0
KCL1 082023Z 23009KT 09/04 A3028 RMK A01 T00860044  RH  075%=      5-min Rain = 0
KCL1 082024Z 23007KT 09/04 A3028 RMK A01 T00860044  RH  075%=      5-min Rain = 0
KCL1 082025Z 24007KT 09/05 A3027 RMK A01 T00860045  RH  075%=      5-min Rain = 0
KCL1 082026Z 22009KT 09/05 A3027 RMK A01 T00880045  RH  075%=      5-min Rain = 0
KCL1 082027Z 22009KT 09/05 A3027 RMK A01 T00880045  RH  074%=      5-min Rain = 0
KCL1 082028Z 20008KT 09/05 A3027 RMK A01 T00890045  RH  074%=      5-min Rain = 0
KCL1 082029Z 21008KT 09/05 A3027 RMK A01 T00900047  RH  074%=      5-min Rain = 0
KCL1 082030Z 21008KT 09/05 A3027 RMK A01 T00920047  RH  074%=      5-min Rain = 0
KCL1 082031Z 21009KT 09/05 A3027 RMK A01 T00940047  RH  073%=      5-min Rain = 0
KCL1 082032Z 22010KT 09/05 A3027 RMK A01 T00940047  RH  072%=      5-min Rain = 0
KCL1 082033Z 22009KT 09/05 A3027 RMK A01 T00930045  RH  072%=      5-min Rain = 0
KCL1 082034Z 23007KT 09/05 A3027 RMK A01 T00930046  RH  072%=      5-min Rain = 0
KCL1 082035Z 22005KT 09/05 A3027 RMK A01 T00940045  RH  072%=      5-min Rain = 0
KCL1 082036Z 22008KT 10/05 A3027 RMK A01 T00950047  RH  072%=      5-min Rain = 0
KCL1 082037Z 21009KT 10/05 A3027 RMK A01 T00950046  RH  071%=      5-min Rain = 0
KCL1 082038Z 19010KT 09/05 A3027 RMK A01 T00940045  RH  072%=      5-min Rain = 0
KCL1 082039Z 22007KT 09/05 A3027 RMK A01 T00930046  RH  072%=      5-min Rain = 0
KCL1 082040Z 24008KT 09/05 A3027 RMK A01 T00940047  RH  072%=      5-min Rain = 0
KCL1 082041Z 24009KT 10/05 A3027 RMK A01 T00950046  RH  071%=      5-min Rain = 0
KCL1 082042Z 24005KT 10/05 A3027 RMK A01 T00950046  RH  071%=      5-min Rain = 0
KCL1 082043Z 22009KT 10/05 A3027 RMK A01 T00960047  RH  071%=      5-min Rain = 0
KCL1 082044Z 21012KT 10/05 A3027 RMK A01 T00970046  RH  071%=      5-min Rain = 0
KCL1 082045Z 21009KT 10/04 A3027 RMK A01 T00950044  RH  071%=      5-min Rain = 0
KCL1 082046Z 21011KT 09/04 A3027 RMK A01 T00930044  RH  071%=      5-min Rain = 0
KCL1 082047Z 23011KT 09/04 A3026 RMK A01 T00930044  RH  072%=      5-min Rain = 0
KCL1 082048Z 23009KT 09/04 A3026 RMK A01 T00930044  RH  072%=      5-min Rain = 0
KCL1 082049Z 21007KT 09/05 A3026 RMK A01 T00940046  RH  072%=      5-min Rain = 0
KCL1 082050Z 20008KT 10/05 A3026 RMK A01 T00970048  RH  071%=      5-min Rain = 0
KCL1 082051Z 21009KT 10/05 A3026 RMK A01 T00980046  RH  070%=      5-min Rain = 0
KCL1 082052Z 22009KT 10/05 A3026 RMK A01 T00970047  RH  071%=      5-min Rain = 0
KCL1 082053Z 23009KT 10/05 A3026 RMK A01 T00980046  RH  070%=      5-min Rain = 0
KCL1 082054Z 22008KT 10/05 A3026 RMK A01 T00980046  RH  070%=      5-min Rain = 0
KCL1 082055Z 23008KT 10/05 A3026 RMK A01 T00980046  RH  070%=      5-min Rain = 0
KCL1 082056Z 22009KT 10/05 A3026 RMK A01 T00970045  RH  070%=      5-min Rain = 0
KCL1 082057Z 21008KT 10/05 A3026 RMK A01 T00960045  RH  070%=      5-min Rain = 0
KCL1 082058Z 24006KT 10/05 A3026 RMK A01 T00950045  RH  071%=      5-min Rain = 0
KCL1 082059Z 23006KT 10/05 A3026 RMK A01 T00960046  RH  071%=      5-min Rain = 0
KCL1 082100Z 23004KT 10/05 A3026 RMK A01 T00990048  RH  070%=      5-min Rain = 0
KCL1 082101Z 23005KT 10/05 A3026 RMK A01 T01020048  RH  069%=      5-min Rain = 0
KCL1 082102Z 21006KT 10/05 A3026 RMK A01 T01030047  RH  068%=      5-min Rain = 0
KCL1 082103Z 22007KT 10/05 A3026 RMK A01 T01030047  RH  068%=      5-min Rain = 0
KCL1 082104Z 22009KT 10/05 A3026 RMK A01 T01020046  RH  068%=      5-min Rain = 0
KCL1 082105Z 23008KT 10/05 A3026 RMK A01 T01000047  RH  069%=      5-min Rain = 0
KCL1 082106Z 22009KT 10/05 A3026 RMK A01 T01010047  RH  069%=      5-min Rain = 0
KCL1 082107Z 21008KT 10/05 A3026 RMK A01 T01010045  RH  069%=      5-min Rain = 0
KCL1 082108Z 22007KT 10/05 A3026 RMK A01 T00990046  RH  070%=      5-min Rain = 0
KCL1 082109Z 22008KT 10/05 A3026 RMK A01 T00990046  RH  070%=      5-min Rain = 0
KCL1 082110Z 21007KT 10/05 A3026 RMK A01 T00980046  RH  070%=      5-min Rain = 0
KCL1 082111Z 22008KT 10/05 A3026 RMK A01 T01000047  RH  070%=      5-min Rain = 0
KCL1 082112Z 22008KT 10/05 A3026 RMK A01 T01020048  RH  069%=      5-min Rain = 0
KCL1 082113Z 21009KT 10/05 A3026 RMK A01 T01030047  RH  068%=      5-min Rain = 0
KCL1 082114Z 22006KT 10/05 A3026 RMK A01 T01020047  RH  068%=      5-min Rain = 0
KCL1 082115Z 22007KT 10/05 A3026 RMK A01 T01020046  RH  068%=      5-min Rain = 0
KCL1 082116Z 21010KT 10/05 A3026 RMK A01 T01020046  RH  068%=      5-min Rain = 0
KCL1 082117Z 21012KT 10/05 A3026 RMK A01 T01020046  RH  069%=      5-min Rain = 0
KCL1 082118Z 21009KT 10/05 A3026 RMK A01 T01020046  RH  068%=      5-min Rain = 0
KCL1 082119Z 20007KT 10/05 A3026 RMK A01 T01000046  RH  069%=      5-min Rain = 0
KCL1 082120Z 22009KT 10/05 A3026 RMK A01 T01010047  RH  069%=      5-min Rain = 0
KCL1 082121Z 22008KT 10/05 A3026 RMK A01 T01020047  RH  068%=      5-min Rain = 0
KCL1 082122Z 21010KT 10/05 A3026 RMK A01 T01030046  RH  068%=      5-min Rain = 0
KCL1 082123Z 20011KT 10/05 A3026 RMK A01 T01030046  RH  068%=      5-min Rain = 0
KCL1 082124Z 22007KT 10/05 A3026 RMK A01 T01030047  RH  068%=      5-min Rain = 0
KCL1 082125Z 23008KT 10/05 A3026 RMK A01 T01020047  RH  068%=      5-min Rain = 0
KCL1 082126Z 22009KT 10/05 A3026 RMK A01 T01030046  RH  068%=      5-min Rain = 0
KCL1 082127Z 21009KT 10/05 A3026 RMK A01 T01020046  RH  068%=      5-min Rain = 0
KCL1 082128Z 21009KT 10/05 A3026 RMK A01 T01020046  RH  068%=      5-min Rain = 0
KCL1 082129Z 22007KT 10/05 A3026 RMK A01 T01020047  RH  069%=      5-min Rain = 0
KCL1 082130Z 21008KT 10/05 A3026 RMK A01 T01030046  RH  068%=      5-min Rain = 0
KCL1 082131Z 22008KT 10/05 A3026 RMK A01 T01040048  RH  068%=      5-min Rain = 0
KCL1 082132Z 22011KT 11/05 A3026 RMK A01 T01050048  RH  067%=      5-min Rain = 0
KCL1 082133Z 22010KT 10/05 A3026 RMK A01 T01040046  RH  067%=      5-min Rain = 0
KCL1 082134Z 23008KT 10/05 A3026 RMK A01 T01030046  RH  068%=      5-min Rain = 0
KCL1 082135Z 22009KT 10/05 A3026 RMK A01 T01030046  RH  068%=      5-min Rain = 0
KCL1 082136Z 22010KT 10/05 A3025 RMK A01 T01030046  RH  068%=      5-min Rain = 0
KCL1 082137Z 22008KT 10/05 A3026 RMK A01 T01030046  RH  068%=      5-min Rain = 0
KCL1 082138Z 23010KT 10/05 A3025 RMK A01 T01030046  RH  067%=      5-min Rain = 0
KCL1 082139Z 22009KT 10/05 A3025 RMK A01 T01030045  RH  067%=      5-min Rain = 0
KCL1 082140Z 22009KT 10/05 A3025 RMK A01 T01030046  RH  067%=      5-min Rain = 0
KCL1 082141Z 23010KT 10/05 A3025 RMK A01 T01030046  RH  068%=      5-min Rain = 0
KCL1 082142Z 24009KT 10/05 A3026 RMK A01 T01040046  RH  067%=      5-min Rain = 0
KCL1 082143Z 25006KT 10/05 A3025 RMK A01 T01030045  RH  067%=      5-min Rain = 0
KCL1 082144Z 23008KT 10/05 A3025 RMK A01 T01040046  RH  068%=      5-min Rain = 0
KCL1 082145Z 24007KT 10/05 A3025 RMK A01 T01030046  RH  067%=      5-min Rain = 0
KCL1 082146Z 23007KT 10/05 A3025 RMK A01 T01030045  RH  067%=      5-min Rain = 0
KCL1 082147Z 25006KT 10/05 A3025 RMK A01 T01020045  RH  068%=      5-min Rain = 0
KCL1 082148Z 21007KT 10/05 A3025 RMK A01 T01020046  RH  068%=      5-min Rain = 0
KCL1 082149Z 21008KT 10/05 A3025 RMK A01 T01040047  RH  068%=      5-min Rain = 0
KCL1 082150Z 22008KT 10/05 A3025 RMK A01 T01040047  RH  068%=      5-min Rain = 0
KCL1 082151Z 22007KT 11/05 A3025 RMK A01 T01050047  RH  067%=      5-min Rain = 0
KCL1 082152Z 23007KT 11/05 A3025 RMK A01 T01060047  RH  067%=      5-min Rain = 0
KCL1 082153Z 22009KT 11/05 A3025 RMK A01 T01060047  RH  067%=      5-min Rain = 0
KCL1 082154Z 23007KT 11/05 A3025 RMK A01 T01060047  RH  067%=      5-min Rain = 0
KCL1 082155Z 21008KT 11/05 A3025 RMK A01 T01050047  RH  067%=      5-min Rain = 0
KCL1 082156Z 24005KT 11/05 A3025 RMK A01 T01050046  RH  067%=      5-min Rain = 0
KCL1 082157Z 23007KT 11/05 A3025 RMK A01 T01050047  RH  067%=      5-min Rain = 0
KCL1 082158Z 22007KT 11/05 A3025 RMK A01 T01060046  RH  067%=      5-min Rain = 0
KCL1 082159Z 21008KT 11/05 A3025 RMK A01 T01060047  RH  067%=      5-min Rain = 0
KCL1 082200Z 21011KT 11/05 A3025 RMK A01 T01050046  RH  067%=      5-min Rain = 0
KCL1 082201Z 21010KT 10/05 A3025 RMK A01 T01030045  RH  067%=      5-min Rain = 0
KCL1 082202Z 21008KT 10/05 A3025 RMK A01 T01020045  RH  068%=      5-min Rain = 0
KCL1 082203Z 21008KT 10/05 A3025 RMK A01 T01020046  RH  068%=      5-min Rain = 0
KCL1 082204Z 22008KT 10/05 A3025 RMK A01 T01040047  RH  068%=      5-min Rain = 0
KCL1 082205Z 22007KT 11/05 A3025 RMK A01 T01050047  RH  067%=      5-min Rain = 0
KCL1 082206Z 22009KT 11/05 A3025 RMK A01 T01050046  RH  067%=      5-min Rain = 0
KCL1 082207Z 21009KT 11/05 A3025 RMK A01 T01050046  RH  067%=      5-min Rain = 0
KCL1 082208Z 23007KT 10/05 A3025 RMK A01 T01040047  RH  068%=      5-min Rain = 0
KCL1 082209Z 23007KT 11/05 A3025 RMK A01 T01050047  RH  067%=      5-min Rain = 0
KCL1 082210Z 20007KT 11/05 A3025 RMK A01 T01060047  RH  067%=      5-min Rain = 0
KCL1 082211Z 20009KT 11/05 A3025 RMK A01 T01060047  RH  067%=      5-min Rain = 0
KCL1 082212Z 23008KT 11/05 A3025 RMK A01 T01050047  RH  067%=      5-min Rain = 0
KCL1 082213Z 23009KT 11/05 A3025 RMK A01 T01050047  RH  067%=      5-min Rain = 0
KCL1 082214Z 21007KT 11/05 A3025 RMK A01 T01050047  RH  067%=      5-min Rain = 0
KCL1 082215Z 21005KT 11/05 A3025 RMK A01 T01060048  RH  067%=      5-min Rain = 0
KCL1 082216Z 22006KT 11/05 A3025 RMK A01 T01060048  RH  067%=      5-min Rain = 0
KCL1 082217Z 22010KT 11/05 A3025 RMK A01 T01070048  RH  067%=      5-min Rain = 0
KCL1 082218Z 22010KT 11/05 A3025 RMK A01 T01070047  RH  066%=      5-min Rain = 0
KCL1 082219Z 21008KT 10/05 A3025 RMK A01 T01040046  RH  067%=      5-min Rain = 0
KCL1 082220Z 22010KT 10/05 A3025 RMK A01 T01040047  RH  068%=      5-min Rain = 0
KCL1 082221Z 22010KT 10/05 A3025 RMK A01 T01040047  RH  068%=      5-min Rain = 0
KCL1 082222Z 22009KT 10/05 A3025 RMK A01 T01040047  RH  067%=      5-min Rain = 0
KCL1 082223Z 21010KT 10/05 A3025 RMK A01 T01040047  RH  068%=      5-min Rain = 0
KCL1 082224Z 22007KT 10/05 A3025 RMK A01 T01040047  RH  068%=      5-min Rain = 0
KCL1 082225Z 23007KT 10/05 A3025 RMK A01 T01040048  RH  068%=      5-min Rain = 0
KCL1 082226Z 21007KT 11/05 A3025 RMK A01 T01050048  RH  068%=      5-min Rain = 0
KCL1 082227Z 24006KT 11/05 A3025 RMK A01 T01060048  RH  067%=      5-min Rain = 0
KCL1 082228Z 24007KT 11/05 A3025 RMK A01 T01060048  RH  067%=      5-min Rain = 0
KCL1 082229Z 25008KT 11/05 A3025 RMK A01 T01060048  RH  067%=      5-min Rain = 0
KCL1 082230Z 21007KT 11/05 A3025 RMK A01 T01050047  RH  067%=      5-min Rain = 0
KCL1 082231Z 22007KT 10/05 A3025 RMK A01 T01040048  RH  068%=      5-min Rain = 0
KCL1 082232Z 22010KT 10/05 A3025 RMK A01 T01040047  RH  068%=      5-min Rain = 0
KCL1 082233Z 22008KT 10/05 A3025 RMK A01 T01040047  RH  068%=      5-min Rain = 0
KCL1 082234Z 21007KT 10/05 A3025 RMK A01 T01040048  RH  068%=      5-min Rain = 0
KCL1 082235Z 21006KT 10/05 A3025 RMK A01 T01030048  RH  068%=      5-min Rain = 0
KCL1 082236Z 23008KT 10/05 A3025 RMK A01 T01040048  RH  068%=      5-min Rain = 0
KCL1 082237Z 22009KT 10/05 A3025 RMK A01 T01040048  RH  068%=      5-min Rain = 0
KCL1 082238Z 21008KT 10/05 A3025 RMK A01 T01040048  RH  068%=      5-min Rain = 0
KCL1 082239Z 21009KT 10/05 A3025 RMK A01 T01030048  RH  069%=      5-min Rain = 0
KCL1 082240Z 21009KT 10/05 A3025 RMK A01 T01030048  RH  069%=      5-min Rain = 0
KCL1 082241Z 21008KT 10/05 A3025 RMK A01 T01030048  RH  069%=      5-min Rain = 0
KCL1 082242Z 22008KT 10/05 A3025 RMK A01 T01030048  RH  069%=      5-min Rain = 0
KCL1 082243Z 21007KT 10/05 A3025 RMK A01 T01020048  RH  069%=      5-min Rain = 0
KCL1 082244Z 22008KT 10/05 A3025 RMK A01 T01020048  RH  069%=      5-min Rain = 0
KCL1 082245Z 23008KT 10/05 A3025 RMK A01 T01020048  RH  069%=      5-min Rain = 0
KCL1 082246Z 20008KT 10/05 A3024 RMK A01 T01020048  RH  069%=      5-min Rain = 0
KCL1 082247Z 22009KT 10/05 A3024 RMK A01 T01020048  RH  069%=      5-min Rain = 0
KCL1 082248Z 20008KT 10/05 A3024 RMK A01 T01010048  RH  069%=      5-min Rain = 0
KCL1 082249Z 22008KT 10/05 A3024 RMK A01 T01010048  RH  069%=      5-min Rain = 0
KCL1 082250Z 22005KT 10/05 A3024 RMK A01 T01010048  RH  069%=      5-min Rain = 0
KCL1 082251Z 22007KT 10/05 A3024 RMK A01 T01010048  RH  070%=      5-min Rain = 0
KCL1 082252Z 21007KT 10/05 A3024 RMK A01 T01010048  RH  070%=      5-min Rain = 0
KCL1 082253Z 22009KT 10/05 A3024 RMK A01 T01010048  RH  069%=      5-min Rain = 0
KCL1 082254Z 22010KT 10/05 A3024 RMK A01 T01000047  RH  069%=      5-min Rain = 0
KCL1 082255Z 22009KT 10/05 A3024 RMK A01 T01000047  RH  070%=      5-min Rain = 0
KCL1 082256Z 21009KT 10/05 A3024 RMK A01 T00990047  RH  070%=      5-min Rain = 0
KCL1 082257Z 22007KT 10/05 A3024 RMK A01 T00990047  RH  070%=      5-min Rain = 0
KCL1 082258Z 22007KT 10/05 A3024 RMK A01 T00990048  RH  070%=      5-min Rain = 0
KCL1 082259Z 22008KT 10/05 A3024 RMK A01 T00990048  RH  070%=      5-min Rain = 0
KCL1 082300Z 21008KT 10/05 A3024 RMK A01 T00990047  RH  070%=      5-min Rain = 0
KCL1 082301Z 21007KT 10/05 A3024 RMK A01 T00990048  RH  070%=      5-min Rain = 0
KCL1 082302Z 22006KT 10/05 A3024 RMK A01 T00990048  RH  070%=      5-min Rain = 0
KCL1 082303Z 22007KT 10/05 A3024 RMK A01 T00990048  RH  071%=      5-min Rain = 0
KCL1 082304Z 21008KT 10/05 A3024 RMK A01 T00990048  RH  071%=      5-min Rain = 0
KCL1 082305Z 22008KT 10/05 A3024 RMK A01 T00980048  RH  071%=      5-min Rain = 0
KCL1 082306Z 21005KT 10/05 A3025 RMK A01 T00980048  RH  071%=      5-min Rain = 0
KCL1 082307Z 22008KT 10/05 A3025 RMK A01 T00980048  RH  071%=      5-min Rain = 0
KCL1 082308Z 21009KT 10/05 A3025 RMK A01 T00970048  RH  071%=      5-min Rain = 0
KCL1 082309Z 22008KT 10/05 A3025 RMK A01 T00970048  RH  071%=      5-min Rain = 0
KCL1 082310Z 22008KT 10/05 A3025 RMK A01 T00960048  RH  072%=      5-min Rain = 0
KCL1 082311Z 21007KT 10/05 A3025 RMK A01 T00960048  RH  072%=      5-min Rain = 0
KCL1 082312Z 22008KT 10/05 A3025 RMK A01 T00960048  RH  072%=      5-min Rain = 0
KCL1 082313Z 20008KT 10/05 A3025 RMK A01 T00960048  RH  072%=      5-min Rain = 0
KCL1 082314Z 21006KT 10/05 A3025 RMK A01 T00960048  RH  072%=      5-min Rain = 0
KCL1 082315Z 22008KT 10/05 A3025 RMK A01 T00950048  RH  072%=      5-min Rain = 0
KCL1 082316Z 22008KT 10/05 A3025 RMK A01 T00950047  RH  072%=      5-min Rain = 0
KCL1 082317Z 22008KT 10/05 A3025 RMK A01 T00950047  RH  072%=      5-min Rain = 0
KCL1 082318Z 21008KT 09/05 A3025 RMK A01 T00940047  RH  072%=      5-min Rain = 0
KCL1 082319Z 21008KT 09/05 A3025 RMK A01 T00940047  RH  073%=      5-min Rain = 0
KCL1 082320Z 22008KT 09/05 A3025 RMK A01 T00940048  RH  073%=      5-min Rain = 0
KCL1 082321Z 21006KT 09/05 A3025 RMK A01 T00930047  RH  073%=      5-min Rain = 0
KCL1 082322Z 21009KT 09/05 A3025 RMK A01 T00930048  RH  073%=      5-min Rain = 0
KCL1 082323Z 22007KT 09/05 A3025 RMK A01 T00930047  RH  073%=      5-min Rain = 0
KCL1 082324Z 21008KT 09/05 A3025 RMK A01 T00920047  RH  073%=      5-min Rain = 0
KCL1 082325Z 21007KT 09/05 A3025 RMK A01 T00920047  RH  074%=      5-min Rain = 0
KCL1 082326Z 21009KT 09/05 A3025 RMK A01 T00920047  RH  074%=      5-min Rain = 0
KCL1 082327Z 21009KT 09/05 A3024 RMK A01 T00910047  RH  074%=      5-min Rain = 0
KCL1 082328Z 21007KT 09/05 A3025 RMK A01 T00900047  RH  074%=      5-min Rain = 0
KCL1 082329Z 21007KT 09/05 A3025 RMK A01 T00900047  RH  075%=      5-min Rain = 0
KCL1 082330Z 21007KT 09/05 A3025 RMK A01 T00900047  RH  075%=      5-min Rain = 0
KCL1 082331Z 21008KT 09/05 A3025 RMK A01 T00890047  RH  075%=      5-min Rain = 0
KCL1 082332Z 21008KT 09/05 A3025 RMK A01 T00880047  RH  075%=      5-min Rain = 0
KCL1 082333Z 21008KT 09/05 A3025 RMK A01 T00880047  RH  076%=      5-min Rain = 0
KCL1 082334Z 21008KT 09/05 A3025 RMK A01 T00870047  RH  076%=      5-min Rain = 0
KCL1 082335Z 21007KT 09/05 A3025 RMK A01 T00870047  RH  076%=      5-min Rain = 0
KCL1 082336Z 22007KT 09/05 A3025 RMK A01 T00860047  RH  076%=      5-min Rain = 0
KCL1 082337Z 21007KT 09/05 A3025 RMK A01 T00860047  RH  076%=      5-min Rain = 0
KCL1 082338Z 21009KT 09/05 A3025 RMK A01 T00860047  RH  077%=      5-min Rain = 0
KCL1 082339Z 21007KT 09/05 A3025 RMK A01 T00860047  RH  077%=      5-min Rain = 0
KCL1 082340Z 22007KT 09/05 A3025 RMK A01 T00850047  RH  077%=      5-min Rain = 0
KCL1 082341Z 22010KT 09/05 A3025 RMK A01 T00850047  RH  077%=      5-min Rain = 0
KCL1 082342Z 21009KT 08/05 A3025 RMK A01 T00840047  RH  078%=      5-min Rain = 0
KCL1 082343Z 21007KT 08/05 A3025 RMK A01 T00840047  RH  078%=      5-min Rain = 0
KCL1 082344Z 21007KT 08/05 A3025 RMK A01 T00840047  RH  078%=      5-min Rain = 0
KCL1 082345Z 21007KT 08/05 A3025 RMK A01 T00830047  RH  078%=      5-min Rain = 0
KCL1 082346Z 21010KT 08/05 A3025 RMK A01 T00820047  RH  078%=      5-min Rain = 0
KCL1 082347Z 20008KT 08/05 A3025 RMK A01 T00820047  RH  079%=      5-min Rain = 0
KCL1 082348Z 21007KT 08/05 A3025 RMK A01 T00820048  RH  079%=      5-min Rain = 0
KCL1 082349Z 21009KT 08/05 A3025 RMK A01 T00820047  RH  079%=      5-min Rain = 0
KCL1 082350Z 21006KT 08/05 A3025 RMK A01 T00820048  RH  079%=      5-min Rain = 0
KCL1 082351Z 22008KT 08/05 A3025 RMK A01 T00810047  RH  079%=      5-min Rain = 0
KCL1 082352Z 21008KT 08/05 A3025 RMK A01 T00800047  RH  080%=      5-min Rain = 0
KCL1 082353Z 21009KT 08/05 A3025 RMK A01 T00810048  RH  080%=      5-min Rain = 0
KCL1 082354Z 21010KT 08/05 A3025 RMK A01 T00800048  RH  080%=      5-min Rain = 0
KCL1 082355Z 21007KT 08/05 A3025 RMK A01 T00800047  RH  080%=      5-min Rain = 0
KCL1 082356Z 21008KT 08/05 A3025 RMK A01 T00800047  RH  080%=      5-min Rain = 0
KCL1 082357Z 21008KT 08/05 A3025 RMK A01 T00800048  RH  080%=      5-min Rain = 0
KCL1 082358Z 21009KT 08/05 A3025 RMK A01 T00790048  RH  080%=      5-min Rain = 0
KCL1 082359Z 21007KT 08/05 A3025 RMK A01 T00790047  RH  080%=      5-min Rain = 0
KCL1 090000Z 21008KT 08/05 A3025 RMK A01 T00790047  RH  081%=      5-min Rain = 0
KCL1 090001Z 21009KT 08/05 A3025 RMK A01 T00780047  RH  081%=      5-min Rain = 0
KCL1 090002Z 21009KT 08/05 A3025 RMK A01 T00780048  RH  081%=      5-min Rain = 0
KCL1 090003Z 21006KT 08/05 A3025 RMK A01 T00780047  RH  081%=      5-min Rain = 0
KCL1 090004Z 21006KT 08/05 A3025 RMK A01 T00780047  RH  081%=      5-min Rain = 0
KCL1 090005Z 21007KT 08/05 A3025 RMK A01 T00770047  RH  081%=      5-min Rain = 0
KCL1 090006Z 20006KT 08/05 A3025 RMK A01 T00770048  RH  082%=      5-min Rain = 0
KCL1 090007Z 21007KT 08/05 A3025 RMK A01 T00760047  RH  082%=      5-min Rain = 0
KCL1 090008Z 21007KT 08/05 A3025 RMK A01 T00760047  RH  082%=      5-min Rain = 0
KCL1 090009Z 21006KT 08/05 A3025 RMK A01 T00760047  RH  082%=      5-min Rain = 0
KCL1 090010Z 21007KT 08/05 A3025 RMK A01 T00750047  RH  082%=      5-min Rain = 0
KCL1 090011Z 21007KT 08/05 A3025 RMK A01 T00750047  RH  083%=      5-min Rain = 0
KCL1 090012Z 21008KT 08/05 A3025 RMK A01 T00750048  RH  083%=      5-min Rain = 0
KCL1 090013Z 21008KT 08/05 A3025 RMK A01 T00750048  RH  083%=      5-min Rain = 0
KCL1 090014Z 21008KT 08/05 A3025 RMK A01 T00750047  RH  083%=      5-min Rain = 0
KCL1 090015Z 21008KT 08/05 A3025 RMK A01 T00750048  RH  083%=      5-min Rain = 0
KCL1 090016Z 21006KT 08/05 A3025 RMK A01 T00750047  RH  083%=      5-min Rain = 0
KCL1 090017Z 22007KT 08/05 A3025 RMK A01 T00750047  RH  083%=      5-min Rain = 0
KCL1 090018Z 21008KT 07/05 A3025 RMK A01 T00740047  RH  083%=      5-min Rain = 0
KCL1 090019Z 21008KT 07/05 A3025 RMK A01 T00740048  RH  083%=      5-min Rain = 0
KCL1 090020Z 21008KT 07/05 A3025 RMK A01 T00740048  RH  083%=      5-min Rain = 0
KCL1 090021Z 21008KT 07/05 A3025 RMK A01 T00740048  RH  083%=      5-min Rain = 0
KCL1 090022Z 21008KT 07/05 A3025 RMK A01 T00740048  RH  083%=      5-min Rain = 0
KCL1 090023Z 20007KT 07/05 A3025 RMK A01 T00740047  RH  083%=      5-min Rain = 0
KCL1 090024Z 21005KT 07/05 A3025 RMK A01 T00740048  RH  083%=      5-min Rain = 0
KCL1 090025Z 20006KT 07/05 A3025 RMK A01 T00730047  RH  084%=      5-min Rain = 0
KCL1 090026Z 21006KT 07/05 A3025 RMK A01 T00720046  RH  084%=      5-min Rain = 0
KCL1 090027Z 22006KT 07/05 A3025 RMK A01 T00710047  RH  085%=      5-min Rain = 0
KCL1 090028Z 21005KT 07/05 A3025 RMK A01 T00700047  RH  085%=      5-min Rain = 0
KCL1 090029Z 21006KT 07/05 A3025 RMK A01 T00700048  RH  086%=      5-min Rain = 0
KCL1 090030Z 21007KT 07/05 A3025 RMK A01 T00700048  RH  086%=      5-min Rain = 0
KCL1 090031Z 20007KT 07/05 A3025 RMK A01 T00700048  RH  086%=      5-min Rain = 0
KCL1 090032Z 20007KT 07/05 A3025 RMK A01 T00700049  RH  086%=      5-min Rain = 0
KCL1 090033Z 21007KT 07/05 A3025 RMK A01 T00710048  RH  086%=      5-min Rain = 0
KCL1 090034Z 21007KT 07/05 A3025 RMK A01 T00700048  RH  086%=      5-min Rain = 0
KCL1 090035Z 21007KT 07/05 A3025 RMK A01 T00700048  RH  086%=      5-min Rain = 0
KCL1 090036Z 21007KT 07/05 A3025 RMK A01 T00700048  RH  086%=      5-min Rain = 0
KCL1 090037Z 21007KT 07/05 A3025 RMK A01 T00710048  RH  086%=      5-min Rain = 0
KCL1 090038Z 21007KT 07/05 A3025 RMK A01 T00700049  RH  086%=      5-min Rain = 0
KCL1 090039Z 22006KT 07/05 A3025 RMK A01 T00700049  RH  086%=      5-min Rain = 0
KCL1 090040Z 21008KT 07/05 A3025 RMK A01 T00700049  RH  086%=      5-min Rain = 0
KCL1 090041Z 21006KT 07/05 A3025 RMK A01 T00700049  RH  087%=      5-min Rain = 0
KCL1 090042Z 21007KT 07/05 A3025 RMK A01 T00700049  RH  086%=      5-min Rain = 0
KCL1 090043Z 21006KT 07/05 A3025 RMK A01 T00700049  RH  087%=      5-min Rain = 0
KCL1 090044Z 22006KT 07/05 A3025 RMK A01 T00690049  RH  087%=      5-min Rain = 0
KCL1 090045Z 21008KT 07/05 A3025 RMK A01 T00690049  RH  087%=      5-min Rain = 0
KCL1 090046Z 21008KT 07/05 A3025 RMK A01 T00690050  RH  087%=      5-min Rain = 0
KCL1 090047Z 21008KT 07/05 A3025 RMK A01 T00690050  RH  087%=      5-min Rain = 0
KCL1 090048Z 21007KT 07/05 A3025 RMK A01 T00700050  RH  087%=      5-min Rain = 0
KCL1 090049Z 21009KT 07/05 A3025 RMK A01 T00700050  RH  087%=      5-min Rain = 0
KCL1 090050Z 21008KT 07/05 A3025 RMK A01 T00700050  RH  087%=      5-min Rain = 0
KCL1 090051Z 21008KT 07/05 A3025 RMK A01 T00700050  RH  087%=      5-min Rain = 0
KCL1 090052Z 22008KT 07/05 A3026 RMK A01 T00700050  RH  087%=      5-min Rain = 0
KCL1 090053Z 21007KT 07/05 A3026 RMK A01 T00700050  RH  087%=      5-min Rain = 0
KCL1 090054Z 20007KT 07/05 A3026 RMK A01 T00700050  RH  087%=      5-min Rain = 0
KCL1 090055Z 21008KT 07/05 A3026 RMK A01 T00700050  RH  087%=      5-min Rain = 0
KCL1 090056Z 21008KT 07/05 A3026 RMK A01 T00690050  RH  088%=      5-min Rain = 0
KCL1 090057Z 21007KT 07/05 A3026 RMK A01 T00690050  RH  088%=      5-min Rain = 0
KCL1 090058Z 20008KT 07/05 A3026 RMK A01 T00690050  RH  088%=      5-min Rain = 0
KCL1 090059Z 21008KT 07/05 A3026 RMK A01 T00690051  RH  088%=      5-min Rain = 0
KCL1 090100Z 21008KT 07/05 A3026 RMK A01 T00680051  RH  088%=      5-min Rain = 0
KCL1 090101Z 21008KT 07/05 A3026 RMK A01 T00690051  RH  089%=      5-min Rain = 0
KCL1 090102Z 20007KT 07/05 A3026 RMK A01 T00680051  RH  088%=      5-min Rain = 0
KCL1 090103Z 21008KT 07/05 A3026 RMK A01 T00690051  RH  088%=      5-min Rain = 0
KCL1 090104Z 21007KT 07/05 A3026 RMK A01 T00680051  RH  089%=      5-min Rain = 0
KCL1 090105Z 21007KT 07/05 A3026 RMK A01 T00680051  RH  089%=      5-min Rain = 0
KCL1 090106Z 21008KT 07/05 A3026 RMK A01 T00680052  RH  089%=      5-min Rain = 0
KCL1 090107Z 21008KT 07/05 A3026 RMK A01 T00680052  RH  090%=      5-min Rain = 0
KCL1 090108Z 21007KT 07/05 A3026 RMK A01 T00670052  RH  090%=      5-min Rain = 0
KCL1 090109Z 21008KT 07/05 A3026 RMK A01 T00670052  RH  090%=      5-min Rain = 0
KCL1 090110Z 20009KT 07/05 A3026 RMK A01 T00670053  RH  091%=      5-min Rain = 0
KCL1 090111Z 21009KT 07/05 A3026 RMK A01 T00670053  RH  090%=      5-min Rain = 0
KCL1 090112Z 21008KT 07/05 A3026 RMK A01 T00680053  RH  090%=      5-min Rain = 0
KCL1 090113Z 21009KT 07/05 A3026 RMK A01 T00680053  RH  090%=      5-min Rain = 0
KCL1 090114Z 21008KT 07/05 A3026 RMK A01 T00680053  RH  090%=      5-min Rain = 0
KCL1 090115Z 21006KT 07/05 A3026 RMK A01 T00680052  RH  090%=      5-min Rain = 0
KCL1 090116Z 21007KT 07/05 A3026 RMK A01 T00680052  RH  090%=      5-min Rain = 0
KCL1 090117Z 21007KT 07/05 A3026 RMK A01 T00680052  RH  090%=      5-min Rain = 0
KCL1 090118Z 21008KT 07/05 A3026 RMK A01 T00670052  RH  090%=      5-min Rain = 0
KCL1 090119Z 21009KT 07/05 A3026 RMK A01 T00670054  RH  091%=      5-min Rain = 0
KCL1 090120Z 22008KT 07/05 A3026 RMK A01 T00670054  RH  091%=      5-min Rain = 0
KCL1 090121Z 21008KT 07/05 A3026 RMK A01 T00680054  RH  091%=      5-min Rain = 0
KCL1 090122Z 22008KT 07/05 A3026 RMK A01 T00680054  RH  091%=      5-min Rain = 0
KCL1 090123Z 21009KT 07/05 A3026 RMK A01 T00680053  RH  090%=      5-min Rain = 0
KCL1 090124Z 21008KT 07/05 A3026 RMK A01 T00670053  RH  091%=      5-min Rain = 0
KCL1 090125Z 21007KT 07/05 A3026 RMK A01 T00670054  RH  091%=      5-min Rain = 0
KCL1 090126Z 22008KT 07/05 A3026 RMK A01 T00670054  RH  091%=      5-min Rain = 0
KCL1 090127Z 21008KT 07/05 A3026 RMK A01 T00670054  RH  091%=      5-min Rain = 0
KCL1 090128Z 22008KT 07/05 A3026 RMK A01 T00670054  RH  092%=      5-min Rain = 0
KCL1 090129Z 21008KT 07/06 A3026 RMK A01 T00670055  RH  092%=      5-min Rain = 0
KCL1 090130Z 22008KT 07/06 A3026 RMK A01 T00680055  RH  091%=      5-min Rain = 0
KCL1 090131Z 21006KT 07/05 A3026 RMK A01 T00670054  RH  091%=      5-min Rain = 0
KCL1 090132Z 22007KT 07/05 A3026 RMK A01 T00670054  RH  092%=      5-min Rain = 0
KCL1 090133Z 21007KT 07/06 A3026 RMK A01 T00660055  RH  092%=      5-min Rain = 0
KCL1 090134Z 22007KT 07/06 A3026 RMK A01 T00660056  RH  093%=      5-min Rain = 0
KCL1 090135Z 22006KT 07/06 A3026 RMK A01 T00660055  RH  093%=      5-min Rain = 0
KCL1 090136Z 22007KT 07/06 A3026 RMK A01 T00660056  RH  093%=      5-min Rain = 0
KCL1 090137Z 22008KT 07/06 A3026 RMK A01 T00660057  RH  094%=      5-min Rain = 0
KCL1 090138Z 22007KT 07/06 A3026 RMK A01 T00660057  RH  094%=      5-min Rain = 0
KCL1 090139Z 21009KT 07/06 A3026 RMK A01 T00660056  RH  093%=      5-min Rain = 0
KCL1 090140Z 21009KT 07/06 A3026 RMK A01 T00660057  RH  094%=      5-min Rain = 0
KCL1 090141Z 21009KT 07/06 A3026 RMK A01 T00670058  RH  094%=      5-min Rain = 0
KCL1 090142Z 21008KT 07/06 A3026 RMK A01 T00670057  RH  093%=      5-min Rain = 0
KCL1 090143Z 21008KT 07/06 A3026 RMK A01 T00680057  RH  093%=      5-min Rain = 0
KCL1 090144Z 22008KT 07/06 A3026 RMK A01 T00670056  RH  093%=      5-min Rain = 0
KCL1 090145Z 22008KT 07/06 A3026 RMK A01 T00670057  RH  093%=      5-min Rain = 0
KCL1 090146Z 22007KT 07/06 A3026 RMK A01 T00670057  RH  094%=      5-min Rain = 0
KCL1 090147Z 22008KT 07/06 A3026 RMK A01 T00670058  RH  094%=      5-min Rain = 0
KCL1 090148Z 22007KT 07/06 A3026 RMK A01 T00670058  RH  094%=      5-min Rain = 0
KCL1 090149Z 22007KT 07/06 A3026 RMK A01 T00670057  RH  093%=      5-min Rain = 0
KCL1 090150Z 22007KT 07/06 A3026 RMK A01 T00670057  RH  094%=      5-min Rain = 0
KCL1 090151Z 22008KT 07/06 A3026 RMK A01 T00660058  RH  094%=      5-min Rain = 0
KCL1 090152Z 23007KT 07/06 A3026 RMK A01 T00660057  RH  094%=      5-min Rain = 0
KCL1 090153Z 22007KT 07/06 A3026 RMK A01 T00660058  RH  095%=      5-min Rain = 0
KCL1 090154Z 22006KT 07/06 A3026 RMK A01 T00650059  RH  095%=      5-min Rain = 0
KCL1 090155Z 21006KT 07/06 A3026 RMK A01 T00650058  RH  096%=      5-min Rain = 0
KCL1 090156Z 22006KT 07/06 A3026 RMK A01 T00650059  RH  096%=      5-min Rain = 0
KCL1 090157Z 22005KT 07/06 A3026 RMK A01 T00650059  RH  096%=      5-min Rain = 0
KCL1 090158Z 22008KT 07/06 A3026 RMK A01 T00650059  RH  096%=      5-min Rain = 0
KCL1 090159Z 23006KT 07/06 A3026 RMK A01 T00650060  RH  097%=      5-min Rain = 0
KCL1 090200Z 23006KT 06/06 A3026 RMK A01 T00640059  RH  096%=      5-min Rain = 0
KCL1 090201Z 23006KT 06/06 A3026 RMK A01 T00640059  RH  097%=      5-min Rain = 0
KCL1 090202Z 23006KT 07/06 A3026 RMK A01 T00650060  RH  097%=      5-min Rain = 0
KCL1 090203Z 23004KT 06/06 A3026 RMK A01 T00640060  RH  097%=      5-min Rain = 0
KCL1 090204Z 22005KT 06/06 A3026 RMK A01 T00640059  RH  096%=      5-min Rain = 0
KCL1 090205Z 22006KT 06/06 A3026 RMK A01 T00640060  RH  097%=      5-min Rain = 0
KCL1 090206Z 23004KT 06/06 A3026 RMK A01 T00640060  RH  097%=      5-min Rain = 0
KCL1 090207Z 23005KT 06/06 A3026 RMK A01 T00640059  RH  097%=      5-min Rain = 0
KCL1 090208Z 23005KT 06/06 A3026 RMK A01 T00630059  RH  097%=      5-min Rain = 0
KCL1 090209Z 23006KT 06/06 A3026 RMK A01 T00620060  RH  098%=      5-min Rain = 0
KCL1 090210Z 23005KT 06/06 A3026 RMK A01 T00620060  RH  099%=      5-min Rain = 0
KCL1 090211Z 24006KT 06/06 A3026 RMK A01 T00620060  RH  099%=      5-min Rain = 0
KCL1 090212Z 23005KT 06/06 A3026 RMK A01 T00620060  RH  099%=      5-min Rain = 0
KCL1 090213Z 23005KT 06/06 A3026 RMK A01 T00620061  RH  099%=      5-min Rain = 0
KCL1 090214Z 24007KT 06/06 A3026 RMK A01 T00620061  RH  099%=      5-min Rain = 0
KCL1 090215Z 23006KT 06/06 A3026 RMK A01 T00630062  RH  099%=      5-min Rain = 0
KCL1 090216Z 23006KT 06/06 A3026 RMK A01 T00630061  RH  099%=      5-min Rain = 0
KCL1 090217Z 23006KT 06/06 A3026 RMK A01 T00630061  RH  099%=      5-min Rain = 0
KCL1 090218Z 23005KT 06/06 A3026 RMK A01 T00630060  RH  098%=      5-min Rain = 0
KCL1 090219Z 23005KT 06/06 A3026 RMK A01 T00630061  RH  098%=      5-min Rain = 0
KCL1 090220Z 24004KT 06/06 A3026 RMK A01 T00630061  RH  098%=      5-min Rain = 0
KCL1 090221Z 23005KT 06/06 A3026 RMK A01 T00630061  RH  099%=      5-min Rain = 0
KCL1 090222Z 24005KT 06/06 A3026 RMK A01 T00630062  RH  099%=      5-min Rain = 0
KCL1 090223Z 24005KT 06/06 A3027 RMK A01 T00630061  RH  099%=      5-min Rain = 0
KCL1 090224Z 24005KT 06/06 A3027 RMK A01 T00630062  RH  099%=      5-min Rain = 0
KCL1 090225Z 24005KT 06/06 A3027 RMK A01 T00630062  RH  099%=      5-min Rain = 0
KCL1 090226Z 24004KT 06/06 A3027 RMK A01 T00630060  RH  098%=      5-min Rain = 0
KCL1 090227Z 24004KT 06/06 A3027 RMK A01 T00630060  RH  098%=      5-min Rain = 0
KCL1 090228Z 23004KT 06/06 A3027 RMK A01 T00620061  RH  099%=      5-min Rain = 0
KCL1 090229Z 23004KT 06/06 A3027 RMK A01 T00620061  RH  099%=      5-min Rain = 0
KCL1 090230Z 22004KT 06/06 A3027 RMK A01 T00610061  RH  100%=      5-min Rain = 0
KCL1 090231Z 22005KT 06/06 A3027 RMK A01 T00610061  RH  100%=      5-min Rain = 0
KCL1 090232Z 22005KT 06/06 A3027 RMK A01 T00610061  RH  100%=      5-min Rain = 0
KCL1 090233Z 23005KT 06/06 A3027 RMK A01 T00610061  RH  100%=      5-min Rain = 0
KCL1 090234Z 23005KT 06/06 A3027 RMK A01 T00610061  RH  100%=      5-min Rain = 0
KCL1 090235Z 23005KT 06/06 A3026 RMK A01 T00610061  RH  100%=      5-min Rain = 0
KCL1 090236Z 23005KT 06/06 A3026 RMK A01 T00610061  RH  100%=      5-min Rain = 0
KCL1 090237Z 24005KT 06/06 A3026 RMK A01 T00610061  RH  100%=      5-min Rain = 0
KCL1 090238Z 23005KT 06/06 A3026 RMK A01 T00610061  RH  100%=      5-min Rain = 0
KCL1 090239Z 23006KT 06/06 A3026 RMK A01 T00610061  RH  100%=      5-min Rain = 0
KCL1 090240Z 24006KT 06/06 A3026 RMK A01 T00610061  RH  100%=      5-min Rain = 0
KCL1 090241Z 24005KT 06/06 A3026 RMK A01 T00620062  RH  100%=      5-min Rain = 0
KCL1 090242Z 24005KT 06/06 A3026 RMK A01 T00620062  RH  100%=      5-min Rain = 0
KCL1 090243Z 24005KT 06/06 A3026 RMK A01 T00620062  RH  100%=      5-min Rain = 0
KCL1 090244Z 24006KT 06/06 A3026 RMK A01 T00620062  RH  100%=      5-min Rain = 0
KCL1 090245Z 25006KT 06/06 A3026 RMK A01 T00620062  RH  100%=      5-min Rain = 0
KCL1 090246Z 25008KT 06/06 A3026 RMK A01 T00620062  RH  100%=      5-min Rain = 0
KCL1 090247Z 25007KT 06/06 A3026 RMK A01 T00630063  RH  100%=      5-min Rain = 0
KCL1 090248Z 25006KT 07/06 A3027 RMK A01 T00650063  RH  099%=      5-min Rain = 0
KCL1 090249Z 25007KT 07/06 A3027 RMK A01 T00650061  RH  098%=      5-min Rain = 0
KCL1 090250Z 25006KT 07/06 A3027 RMK A01 T00650061  RH  098%=      5-min Rain = 0
KCL1 090251Z 25006KT 07/06 A3027 RMK A01 T00650061  RH  097%=      5-min Rain = 0
KCL1 090252Z 25006KT 07/06 A3027 RMK A01 T00650061  RH  097%=      5-min Rain = 0
KCL1 090253Z 25006KT 07/06 A3027 RMK A01 T00650061  RH  097%=      5-min Rain = 0
KCL1 090254Z 25006KT 06/06 A3027 RMK A01 T00640060  RH  097%=      5-min Rain = 0
KCL1 090255Z 25007KT 07/06 A3027 RMK A01 T00650061  RH  098%=      5-min Rain = 0
KCL1 090256Z 26006KT 07/06 A3027 RMK A01 T00650061  RH  097%=      5-min Rain = 0
KCL1 090257Z 26005KT 07/06 A3027 RMK A01 T00650059  RH  096%=      5-min Rain = 0
KCL1 090258Z 25006KT 07/06 A3027 RMK A01 T00660059  RH  096%=      5-min Rain = 0
KCL1 090259Z 26005KT 07/06 A3027 RMK A01 T00650059  RH  096%=      5-min Rain = 0
KCL1 090300Z 26005KT 07/06 A3027 RMK A01 T00650058  RH  095%=      5-min Rain = 0
KCL1 090301Z 25006KT 06/06 A3027 RMK A01 T00640058  RH  096%=      5-min Rain = 0
KCL1 090302Z 25005KT 06/06 A3027 RMK A01 T00640059  RH  096%=      5-min Rain = 0
KCL1 090303Z 25006KT 06/06 A3027 RMK A01 T00640059  RH  096%=      5-min Rain = 0
KCL1 090304Z 26005KT 06/06 A3027 RMK A01 T00640060  RH  097%=      5-min Rain = 0
KCL1 090305Z 26005KT 07/06 A3027 RMK A01 T00650058  RH  096%=      5-min Rain = 0
KCL1 090306Z 25005KT 07/06 A3027 RMK A01 T00650058  RH  095%=      5-min Rain = 0
KCL1 090307Z 26006KT 06/06 A3027 RMK A01 T00640057  RH  096%=      5-min Rain = 0
KCL1 090308Z 26005KT 06/06 A3027 RMK A01 T00640058  RH  096%=      5-min Rain = 0
KCL1 090309Z 25005KT 06/06 A3027 RMK A01 T00630059  RH  097%=      5-min Rain = 0
KCL1 090310Z 25005KT 06/06 A3027 RMK A01 T00630058  RH  097%=      5-min Rain = 0
KCL1 090311Z 26005KT 06/06 A3027 RMK A01 T00620058  RH  097%=      5-min Rain = 0
KCL1 090312Z 26005KT 06/06 A3027 RMK A01 T00610058  RH  098%=      5-min Rain = 0
KCL1 090313Z 25006KT 06/06 A3027 RMK A01 T00600058  RH  099%=      5-min Rain = 0
KCL1 090314Z 26005KT 06/06 A3027 RMK A01 T00600059  RH  099%=      5-min Rain = 0
KCL1 090315Z 25006KT 06/06 A3027 RMK A01 T00600059  RH  099%=      5-min Rain = 0
KCL1 090316Z 25006KT 06/06 A3027 RMK A01 T00600060  RH  099%=      5-min Rain = 0
KCL1 090317Z 25006KT 06/06 A3027 RMK A01 T00610059  RH  099%=      5-min Rain = 0
KCL1 090318Z 25005KT 06/06 A3027 RMK A01 T00610059  RH  098%=      5-min Rain = 0
KCL1 090319Z 24007KT 06/06 A3027 RMK A01 T00620058  RH  098%=      5-min Rain = 0
KCL1 090320Z 25006KT 06/06 A3027 RMK A01 T00630059  RH  097%=      5-min Rain = 0
KCL1 090321Z 25005KT 06/06 A3027 RMK A01 T00640058  RH  096%=      5-min Rain = 0
KCL1 090322Z 25005KT 07/06 A3027 RMK A01 T00650057  RH  094%=      5-min Rain = 0
KCL1 090323Z 25005KT 07/06 A3027 RMK A01 T00650056  RH  094%=      5-min Rain = 0
KCL1 090324Z 25005KT 06/06 A3027 RMK A01 T00640056  RH  095%=      5-min Rain = 0
KCL1 090325Z 25006KT 06/06 A3027 RMK A01 T00640057  RH  095%=      5-min Rain = 0
KCL1 090326Z 25004KT 06/06 A3027 RMK A01 T00640057  RH  095%=      5-min Rain = 0
KCL1 090327Z 25004KT 07/06 A3027 RMK A01 T00650056  RH  094%=      5-min Rain = 0
KCL1 090328Z 26004KT 06/06 A3027 RMK A01 T00640055  RH  094%=      5-min Rain = 0
KCL1 090329Z 25005KT 06/06 A3027 RMK A01 T00630055  RH  095%=      5-min Rain = 0
KCL1 090330Z 25005KT 06/06 A3027 RMK A01 T00620055  RH  095%=      5-min Rain = 0
KCL1 090331Z 27004KT 06/06 A3027 RMK A01 T00610056  RH  096%=      5-min Rain = 0
KCL1 090332Z 27004KT 06/06 A3027 RMK A01 T00610055  RH  096%=      5-min Rain = 0
KCL1 090333Z 27004KT 06/05 A3027 RMK A01 T00600054  RH  096%=      5-min Rain = 0
KCL1 090334Z 27005KT 06/05 A3027 RMK A01 T00580054  RH  097%=      5-min Rain = 0
KCL1 090335Z 27004KT 06/06 A3027 RMK A01 T00580056  RH  098%=      5-min Rain = 0
KCL1 090336Z 25005KT 06/06 A3027 RMK A01 T00580055  RH  098%=      5-min Rain = 0
KCL1 090337Z 25005KT 06/06 A3027 RMK A01 T00570056  RH  099%=      5-min Rain = 0
KCL1 090338Z 25006KT 06/06 A3027 RMK A01 T00570057  RH  100%=      5-min Rain = 0
KCL1 090339Z 25005KT 06/06 A3027 RMK A01 T00570057  RH  100%=      5-min Rain = 0
KCL1 090340Z 25004KT 06/06 A3027 RMK A01 T00580057  RH  099%=      5-min Rain = 0
KCL1 090341Z 24005KT 06/06 A3027 RMK A01 T00580057  RH  100%=      5-min Rain = 0
KCL1 090342Z 25005KT 06/06 A3027 RMK A01 T00580057  RH  099%=      5-min Rain = 0
KCL1 090343Z 24006KT 06/06 A3027 RMK A01 T00590057  RH  099%=      5-min Rain = 0
KCL1 090344Z 24005KT 06/06 A3027 RMK A01 T00600057  RH  098%=      5-min Rain = 0
KCL1 090345Z 23005KT 06/06 A3027 RMK A01 T00610056  RH  097%=      5-min Rain = 0
KCL1 090346Z 24005KT 06/06 A3027 RMK A01 T00610056  RH  096%=      5-min Rain = 0
KCL1 090347Z 24006KT 06/06 A3027 RMK A01 T00610055  RH  096%=      5-min Rain = 0
KCL1 090348Z 24006KT 06/06 A3027 RMK A01 T00610056  RH  097%=      5-min Rain = 0
KCL1 090349Z 25006KT 06/06 A3027 RMK A01 T00610055  RH  096%=      5-min Rain = 0
KCL1 090350Z 24006KT 06/06 A3027 RMK A01 T00610055  RH  096%=      5-min Rain = 0
KCL1 090351Z 25006KT 06/06 A3027 RMK A01 T00600055  RH  096%=      5-min Rain = 0
KCL1 090352Z 24006KT 06/06 A3027 RMK A01 T00600055  RH  097%=      5-min Rain = 0
KCL1 090353Z 24006KT 06/06 A3027 RMK A01 T00600055  RH  097%=      5-min Rain = 0
KCL1 090354Z 24006KT 06/06 A3027 RMK A01 T00600055  RH  096%=      5-min Rain = 0
KCL1 090355Z 24007KT 06/05 A3027 RMK A01 T00600054  RH  096%=      5-min Rain = 0
KCL1 090356Z 25005KT 06/06 A3027 RMK A01 T00610055  RH  096%=      5-min Rain = 0
KCL1 090357Z 26005KT 06/05 A3027 RMK A01 T00610054  RH  095%=      5-min Rain = 0
KCL1 090358Z 25005KT 06/05 A3027 RMK A01 T00620054  RH  095%=      5-min Rain = 0
KCL1 090359Z 25005KT 06/05 A3027 RMK A01 T00620054  RH  095%=      5-min Rain = 0
KCL1 090400Z 24005KT 06/05 A3027 RMK A01 T00620054  RH  095%=      5-min Rain = 0
KCL1 090401Z 25005KT 06/05 A3028 RMK A01 T00620053  RH  094%=      5-min Rain = 0
KCL1 090402Z 25004KT 06/05 A3028 RMK A01 T00620054  RH  095%=      5-min Rain = 0
KCL1 090403Z 25005KT 06/05 A3028 RMK A01 T00620054  RH  095%=      5-min Rain = 0
KCL1 090404Z 24005KT 06/05 A3028 RMK A01 T00620053  RH  094%=      5-min Rain = 0
KCL1 090405Z 24005KT 06/05 A3028 RMK A01 T00620053  RH  093%=      5-min Rain = 0
KCL1 090406Z 24004KT 06/05 A3028 RMK A01 T00630052  RH  093%=      5-min Rain = 0
KCL1 090407Z 24003KT 06/05 A3028 RMK A01 T00630052  RH  093%=      5-min Rain = 0
KCL1 090408Z 24003KT 06/05 A3028 RMK A01 T00630051  RH  092%=      5-min Rain = 0
KCL1 090409Z 24004KT 06/05 A3028 RMK A01 T00620051  RH  093%=      5-min Rain = 0
KCL1 090410Z 25003KT 06/05 A3028 RMK A01 T00610051  RH  093%=      5-min Rain = 0
KCL1 090411Z 25004KT 06/05 A3028 RMK A01 T00610052  RH  094%=      5-min Rain = 0
KCL1 090412Z 24005KT 06/05 A3028 RMK A01 T00610052  RH  094%=      5-min Rain = 0
KCL1 090413Z 24004KT 06/05 A3027 RMK A01 T00610051  RH  094%=      5-min Rain = 0
KCL1 090414Z 24005KT 06/05 A3027 RMK A01 T00610051  RH  094%=      5-min Rain = 0
KCL1 090415Z 24005KT 06/05 A3027 RMK A01 T00600051  RH  094%=      5-min Rain = 0
KCL1 090416Z 25006KT 06/05 A3027 RMK A01 T00600051  RH  094%=      5-min Rain = 0
KCL1 090417Z 24006KT 06/05 A3027 RMK A01 T00600052  RH  094%=      5-min Rain = 0
KCL1 090418Z 25006KT 06/05 A3027 RMK A01 T00600053  RH  095%=      5-min Rain = 0
KCL1 090419Z 25006KT 06/05 A3027 RMK A01 T00610053  RH  094%=      5-min Rain = 0
KCL1 090420Z 25006KT 06/05 A3027 RMK A01 T00620053  RH  094%=      5-min Rain = 0
KCL1 090421Z 24005KT 06/05 A3027 RMK A01 T00630053  RH  093%=      5-min Rain = 0
KCL1 090422Z 25005KT 06/05 A3028 RMK A01 T00630052  RH  093%=      5-min Rain = 0
KCL1 090423Z 24005KT 06/05 A3028 RMK A01 T00630052  RH  093%=      5-min Rain = 0
KCL1 090424Z 24005KT 06/05 A3028 RMK A01 T00640052  RH  092%=      5-min Rain = 0
KCL1 090425Z 25005KT 06/05 A3028 RMK A01 T00640052  RH  092%=      5-min Rain = 0
KCL1 090426Z 25005KT 07/05 A3028 RMK A01 T00650051  RH  091%=      5-min Rain = 0
KCL1 090427Z 24005KT 06/05 A3028 RMK A01 T00640051  RH  091%=      5-min Rain = 0
KCL1 090428Z 25006KT 06/05 A3028 RMK A01 T00640051  RH  092%=      5-min Rain = 0
KCL1 090429Z 24006KT 06/05 A3028 RMK A01 T00640052  RH  092%=      5-min Rain = 0
KCL1 090430Z 24004KT 06/05 A3028 RMK A01 T00640052  RH  092%=      5-min Rain = 0
KCL1 090431Z 24006KT 06/05 A3028 RMK A01 T00640051  RH  091%=      5-min Rain = 0
KCL1 090432Z 25006KT 06/05 A3028 RMK A01 T00640052  RH  092%=      5-min Rain = 0
KCL1 090433Z 25005KT 07/05 A3028 RMK A01 T00650052  RH  092%=      5-min Rain = 0
KCL1 090434Z 25005KT 07/05 A3028 RMK A01 T00650052  RH  091%=      5-min Rain = 0
KCL1 090435Z 25005KT 07/05 A3028 RMK A01 T00650052  RH  091%=      5-min Rain = 0
KCL1 090436Z 24005KT 07/05 A3028 RMK A01 T00650052  RH  091%=      5-min Rain = 0
KCL1 090437Z 24005KT 07/05 A3027 RMK A01 T00660052  RH  091%=      5-min Rain = 0
KCL1 090438Z 25004KT 07/05 A3028 RMK A01 T00660051  RH  090%=      5-min Rain = 0
KCL1 090439Z 25004KT 07/05 A3027 RMK A01 T00660052  RH  091%=      5-min Rain = 0
KCL1 090440Z 25006KT 07/05 A3027 RMK A01 T00660051  RH  090%=      5-min Rain = 0
KCL1 090441Z 25006KT 07/05 A3027 RMK A01 T00660052  RH  091%=      5-min Rain = 0
KCL1 090442Z 25005KT 07/05 A3027 RMK A01 T00660052  RH  091%=      5-min Rain = 0
KCL1 090443Z 25006KT 07/05 A3027 RMK A01 T00660053  RH  091%=      5-min Rain = 0
KCL1 090444Z 25006KT 07/05 A3027 RMK A01 T00660053  RH  091%=      5-min Rain = 0
KCL1 090445Z 24005KT 07/05 A3027 RMK A01 T00660052  RH  091%=      5-min Rain = 0
KCL1 090446Z 25006KT 07/05 A3027 RMK A01 T00660053  RH  091%=      5-min Rain = 0
KCL1 090447Z 25005KT 07/05 A3027 RMK A01 T00670053  RH  091%=      5-min Rain = 0
KCL1 090448Z 25006KT 07/05 A3027 RMK A01 T00670053  RH  091%=      5-min Rain = 0
KCL1 090449Z 25006KT 07/05 A3027 RMK A01 T00670053  RH  091%=      5-min Rain = 0
KCL1 090450Z 25006KT 07/05 A3027 RMK A01 T00680053  RH  090%=      5-min Rain = 0
KCL1 090451Z 25006KT 07/05 A3027 RMK A01 T00680053  RH  090%=      5-min Rain = 0
KCL1 090452Z 25007KT 07/05 A3027 RMK A01 T00680053  RH  090%=      5-min Rain = 0
KCL1 090453Z 26006KT 07/05 A3027 RMK A01 T00680053  RH  090%=      5-min Rain = 0
KCL1 090454Z 25007KT 07/05 A3027 RMK A01 T00680053  RH  090%=      5-min Rain = 0
KCL1 090455Z 26005KT 07/05 A3027 RMK A01 T00690053  RH  090%=      5-min Rain = 0
KCL1 090456Z 26007KT 07/05 A3027 RMK A01 T00690053  RH  090%=      5-min Rain = 0
KCL1 090457Z 25006KT 07/05 A3027 RMK A01 T00700053  RH  089%=      5-min Rain = 0
KCL1 090458Z 26007KT 07/05 A3027 RMK A01 T00700053  RH  089%=      5-min Rain = 0
KCL1 090459Z 26006KT 07/05 A3027 RMK A01 T00700053  RH  089%=      5-min Rain = 0
KCL1 090500Z 26006KT 07/05 A3027 RMK A01 T00700053  RH  089%=      5-min Rain = 0
KCL1 090501Z 26006KT 07/05 A3027 RMK A01 T00710053  RH  088%=      5-min Rain = 0
KCL1 090502Z 26005KT 07/05 A3027 RMK A01 T00720053  RH  088%=      5-min Rain = 0
KCL1 090503Z 26005KT 07/05 A3027 RMK A01 T00720053  RH  088%=      5-min Rain = 0
KCL1 090504Z 25006KT 07/05 A3027 RMK A01 T00720052  RH  088%=      5-min Rain = 0
KCL1 090505Z 26007KT 07/05 A3027 RMK A01 T00720053  RH  088%=      5-min Rain = 0
KCL1 090506Z 26006KT 07/05 A3027 RMK A01 T00730053  RH  087%=      5-min Rain = 0
KCL1 090507Z 27006KT 07/05 A3027 RMK A01 T00730053  RH  087%=      5-min Rain = 0
KCL1 090508Z 26006KT 07/05 A3027 RMK A01 T00730053  RH  087%=      5-min Rain = 0
KCL1 090509Z 26007KT 07/05 A3027 RMK A01 T00730053  RH  087%=      5-min Rain = 0
KCL1 090510Z 26007KT 07/05 A3027 RMK A01 T00730052  RH  087%=      5-min Rain = 0
KCL1 090511Z 27005KT 07/05 A3027 RMK A01 T00740053  RH  087%=      5-min Rain = 0
KCL1 090512Z 26006KT 07/05 A3027 RMK A01 T00740053  RH  086%=      5-min Rain = 0
KCL1 090513Z 26006KT 07/05 A3027 RMK A01 T00740053  RH  086%=      5-min Rain = 0
KCL1 090514Z 27007KT 07/05 A3027 RMK A01 T00740053  RH  086%=      5-min Rain = 0
KCL1 090515Z 27008KT 08/05 A3027 RMK A01 T00750053  RH  086%=      5-min Rain = 0
KCL1 090516Z 26009KT 08/05 A3027 RMK A01 T00750053  RH  086%=      5-min Rain = 0
KCL1 090517Z 26007KT 08/05 A3027 RMK A01 T00760053  RH  085%=      5-min Rain = 0
KCL1 090518Z 27007KT 08/05 A3027 RMK A01 T00760052  RH  085%=      5-min Rain = 0
KCL1 090519Z 27009KT 08/05 A3026 RMK A01 T00750052  RH  085%=      5-min Rain = 0
KCL1 090520Z 27007KT 08/05 A3026 RMK A01 T00750052  RH  086%=      5-min Rain = 0
KCL1 090521Z 27008KT 08/05 A3026 RMK A01 T00750052  RH  085%=      5-min Rain = 0
KCL1 090522Z 26008KT 08/05 A3026 RMK A01 T00750052  RH  086%=      5-min Rain = 0
KCL1 090523Z 27008KT 08/05 A3026 RMK A01 T00750052  RH  085%=      5-min Rain = 0
KCL1 090524Z 26008KT 08/05 A3026 RMK A01 T00750052  RH  085%=      5-min Rain = 0
KCL1 090525Z 26009KT 08/05 A3026 RMK A01 T00750051  RH  085%=      5-min Rain = 0
KCL1 090526Z 26007KT 08/05 A3026 RMK A01 T00750051  RH  085%=      5-min Rain = 0
KCL1 090527Z 25007KT 08/05 A3026 RMK A01 T00750051  RH  085%=      5-min Rain = 0
KCL1 090528Z 26007KT 07/05 A3026 RMK A01 T00740051  RH  085%=      5-min Rain = 0
KCL1 090529Z 26007KT 07/05 A3026 RMK A01 T00730051  RH  086%=      5-min Rain = 0
KCL1 090530Z 25007KT 07/05 A3026 RMK A01 T00730051  RH  086%=      5-min Rain = 0
KCL1 090531Z 25007KT 07/05 A3026 RMK A01 T00730052  RH  087%=      5-min Rain = 0
KCL1 090532Z 25007KT 07/05 A3026 RMK A01 T00730052  RH  087%=      5-min Rain = 0
KCL1 090533Z 25006KT 07/05 A3026 RMK A01 T00730052  RH  086%=      5-min Rain = 0
KCL1 090534Z 26007KT 07/05 A3026 RMK A01 T00730052  RH  087%=      5-min Rain = 0
KCL1 090535Z 25007KT 07/05 A3026 RMK A01 T00730052  RH  087%=      5-min Rain = 0
KCL1 090536Z 26005KT 07/05 A3026 RMK A01 T00730052  RH  087%=      5-min Rain = 0
KCL1 090537Z 25007KT 07/05 A3026 RMK A01 T00730052  RH  087%=      5-min Rain = 0
KCL1 090538Z 26006KT 07/05 A3026 RMK A01 T00730052  RH  087%=      5-min Rain = 0
KCL1 090539Z 25005KT 07/05 A3026 RMK A01 T00730052  RH  087%=      5-min Rain = 0
KCL1 090540Z 26008KT 07/05 A3026 RMK A01 T00730052  RH  087%=      5-min Rain = 0
KCL1 090541Z 26006KT 07/05 A3026 RMK A01 T00720052  RH  087%=      5-min Rain = 0
KCL1 090542Z 26006KT 07/05 A3026 RMK A01 T00720052  RH  087%=      5-min Rain = 0
KCL1 090543Z 26007KT 07/05 A3026 RMK A01 T00720052  RH  087%=      5-min Rain = 0
KCL1 090544Z 26005KT 07/05 A3026 RMK A01 T00720052  RH  087%=      5-min Rain = 0
KCL1 090545Z 26006KT 07/05 A3026 RMK A01 T00720052  RH  087%=      5-min Rain = 0
KCL1 090546Z 26007KT 07/05 A3026 RMK A01 T00720052  RH  087%=      5-min Rain = 0
KCL1 090547Z 26006KT 07/05 A3026 RMK A01 T00720053  RH  087%=      5-min Rain = 0
KCL1 090548Z 25005KT 07/05 A3026 RMK A01 T00720052  RH  087%=      5-min Rain = 0
KCL1 090549Z 27005KT 07/05 A3026 RMK A01 T00720052  RH  087%=      5-min Rain = 0
KCL1 090550Z 26006KT 07/05 A3026 RMK A01 T00720053  RH  088%=      5-min Rain = 0
KCL1 090551Z 27006KT 07/05 A3026 RMK A01 T00720053  RH  088%=      5-min Rain = 0
KCL1 090552Z 27006KT 07/05 A3026 RMK A01 T00710052  RH  088%=      5-min Rain = 0
KCL1 090553Z 27007G12KT 07/05 A3026 RMK A01 T00710053  RH  088%=      5-min Rain = 0
KCL1 090554Z 26009KT 07/05 A3026 RMK A01 T00710053  RH  088%=      5-min Rain = 0
KCL1 090555Z 27008KT 07/05 A3026 RMK A01 T00720053  RH  088%=      5-min Rain = 0
KCL1 090556Z 27010KT 07/05 A3026 RMK A01 T00720053  RH  087%=      5-min Rain = 0
KCL1 090557Z 26009KT 07/05 A3026 RMK A01 T00720052  RH  087%=      5-min Rain = 0
KCL1 090558Z 26009KT 07/05 A3026 RMK A01 T00720053  RH  087%=      5-min Rain = 0
KCL1 090559Z 26009KT 07/05 A3026 RMK A01 T00730052  RH  087%=      5-min Rain = 0

Page generated in 0.0761 seconds.